| time (UTC) | temp F | wind direction | speed knots | gust knots | rain 1hr in | rain 24hr in | rain mn in | humidity % | barometer mb |
| 20260504003643 | 80 | 91 | 4.3 | 9.6 | 0.00 | 0.00 | 0.00 | 40 | 945.7 |
| 20260504003542 | 80 | 151 | 4.3 | 9.6 | 0.00 | 0.00 | 0.00 | 40 | 945.6 |
| 20260504003443 | 80 | 118 | 4.3 | 9.6 | 0.00 | 0.00 | 0.00 | 40 | 945.6 |
| 20260504003342 | 81 | 68 | 4.3 | 9.6 | 0.00 | 0.00 | 0.00 | 40 | 945.6 |
| 20260504003243 | 81 | 64 | 4.3 | 9.6 | 0.00 | 0.00 | 0.00 | 40 | 945.6 |
| 20260504003143 | 81 | 79 | 4.3 | 9.6 | 0.00 | 0.00 | 0.00 | 40 | 945.6 |
| 20260504003043 | 81 | 69 | 4.3 | 9.6 | 0.00 | 0.00 | 0.00 | 40 | 945.6 |
| 20260504002943 | 81 | 76 | 4.3 | 9.6 | 0.00 | 0.00 | 0.00 | 40 | 945.6 |
| 20260504002843 | 81 | 99 | 4.3 | 9.6 | 0.00 | 0.00 | 0.00 | 40 | 945.6 |
| 20260504002743 | 81 | 75 | 4.3 | 8.7 | 0.00 | 0.00 | 0.00 | 40 | 945.7 |
| 20260504002643 | 81 | 74 | 4.3 | 8.7 | 0.00 | 0.00 | 0.00 | 40 | 945.6 |
| 20260504002543 | 81 | 134 | 4.3 | 8.7 | 0.00 | 0.00 | 0.00 | 40 | 945.6 |
| 20260504002443 | 81 | 95 | 4.3 | 8.7 | 0.00 | 0.00 | 0.00 | 40 | 945.6 |
| 20260504002343 | 81 | 55 | 4.3 | 8.7 | 0.00 | 0.00 | 0.00 | 40 | 945.6 |
| 20260504002244 | 81 | 54 | 4.3 | 8.7 | 0.00 | 0.00 | 0.00 | 40 | 945.7 |
| 20260504002143 | 81 | 77 | 4.3 | 8.7 | 0.00 | 0.00 | 0.00 | 40 | 945.7 |
| 20260504002043 | 81 | 116 | 4.3 | 8.7 | 0.00 | 0.00 | 0.00 | 40 | 945.7 |
| 20260504001943 | 81 | 69 | 4.3 | 8.7 | 0.00 | 0.00 | 0.00 | 40 | 945.7 |
| 20260504001843 | 81 | 91 | 4.3 | 8.7 | 0.00 | 0.00 | 0.00 | 40 | 945.7 |
| 20260504001743 | 81 | 102 | 4.3 | 8.7 | 0.00 | 0.00 | 0.00 | 40 | 945.6 |
| 20260504001643 | 81 | 72 | 4.3 | 8.7 | 0.00 | 0.00 | 0.00 | 39 | 945.6 |
| 20260504001543 | 82 | 85 | 4.3 | 9.6 | 0.00 | 0.00 | 0.00 | 39 | 945.6 |
| 20260504001443 | 82 | 146 | 4.3 | 9.6 | 0.00 | 0.00 | 0.00 | 39 | 945.6 |
| 20260504001342 | 82 | 43 | 4.3 | 9.6 | 0.00 | 0.00 | 0.00 | 39 | 945.5 |
| 20260504001242 | 82 | 126 | 3.5 | 9.6 | 0.00 | 0.00 | 0.00 | 39 | 945.6 |
| 20260504001141 | 82 | 78 | 4.3 | 9.6 | 0.00 | 0.00 | 0.00 | 39 | 945.5 |
| 20260504001037 | 82 | 114 | 4.3 | 9.6 | 0.00 | 0.00 | 0.00 | 39 | 945.6 |
| 20260504000938 | 82 | 52 | 3.5 | 9.6 | 0.00 | 0.00 | 0.00 | 39 | 945.6 |
| 20260504000836 | 82 | 70 | 4.3 | 9.6 | 0.00 | 0.00 | 0.00 | 39 | 945.6 |
| 20260504000732 | 82 | 108 | 4.3 | 9.6 | 0.00 | 0.00 | 0.00 | 39 | 945.6 |
| 20260504000630 | 82 | 97 | 4.3 | 9.6 | 0.00 | 0.00 | 0.00 | 39 | 945.6 |
| 20260504000530 | 82 | 140 | 4.3 | 8.7 | 0.00 | 0.00 | 0.00 | 39 | 945.6 |
| 20260504000431 | 82 | 140 | 4.3 | 8.7 | 0.00 | 0.00 | 0.00 | 39 | 945.6 |
| 20260504000329 | 82 | 138 | 4.3 | 8.7 | 0.00 | 0.00 | 0.00 | 39 | 945.5 |
| 20260504000230 | 82 | 72 | 4.3 | 8.7 | 0.00 | 0.00 | 0.00 | 39 | 945.6 |
| 20260504000130 | 82 | 71 | 4.3 | 8.7 | 0.00 | 0.00 | 0.00 | 39 | 945.5 |
| 20260504000029 | 81 | 148 | 4.3 | 9.6 | 0.00 | 0.00 | 0.00 | 39 | 945.6 |
| 20260503235926 | 81 | 80 | 5.2 | 10.4 | 0.00 | 0.00 | 0.00 | 39 | 945.6 |
| 20260503235826 | 81 | 119 | 5.2 | 10.4 | 0.00 | 0.00 | 0.00 | 39 | 945.6 |
| 20260503235725 | 81 | 75 | 5.2 | 10.4 | 0.00 | 0.00 | 0.00 | 40 | 945.6 |
| 20260503235626 | 81 | 82 | 5.2 | 10.4 | 0.00 | 0.00 | 0.00 | 39 | 945.5 |
| 20260503235526 | 81 | 86 | 5.2 | 10.4 | 0.00 | 0.00 | 0.00 | 39 | 945.5 |
| 20260503235425 | 81 | 117 | 5.2 | 10.4 | 0.00 | 0.00 | 0.00 | 39 | 945.5 |
| 20260503235326 | 81 | 126 | 5.2 | 10.4 | 0.00 | 0.00 | 0.00 | 39 | 945.5 |
| 20260503235226 | 81 | 114 | 5.2 | 10.4 | 0.00 | 0.00 | 0.00 | 39 | 945.6 |
| 20260503235125 | 81 | 109 | 5.2 | 10.4 | 0.00 | 0.00 | 0.00 | 40 | 945.6 |
| 20260503235026 | 82 | 122 | 5.2 | 10.4 | 0.00 | 0.00 | 0.00 | 39 | 945.6 |
| 20260503234925 | 82 | 117 | 5.2 | 10.4 | 0.00 | 0.00 | 0.00 | 39 | 945.6 |
| 20260503234826 | 82 | 117 | 4.3 | 10.4 | 0.00 | 0.00 | 0.00 | 39 | 945.6 |
| 20260503234726 | 82 | 118 | 5.2 | 10.4 | 0.00 | 0.00 | 0.00 | 39 | 945.6 |
| 20260503234626 | 82 | 87 | 5.2 | 10.4 | 0.00 | 0.00 | 0.00 | 39 | 945.6 |
| 20260503234526 | 82 | 103 | 5.2 | 10.4 | 0.00 | 0.00 | 0.00 | 39 | 945.6 |
| 20260503234427 | 82 | 58 | 4.3 | 10.4 | 0.00 | 0.00 | 0.00 | 39 | 945.6 |
| 20260503234326 | 82 | 155 | 5.2 | 10.4 | 0.00 | 0.00 | 0.00 | 39 | 945.5 |
| 20260503234226 | 82 | 56 | 5.2 | 10.4 | 0.00 | 0.00 | 0.00 | 39 | 945.5 |
| 20260503234127 | 82 | 190 | 5.2 | 10.4 | 0.00 | 0.00 | 0.00 | 39 | 945.6 |
| 20260503234026 | 82 | 82 | 5.2 | 10.4 | 0.00 | 0.00 | 0.00 | 39 | 945.5 |
| 20260503233926 | 82 | 115 | 5.2 | 10.4 | 0.00 | 0.00 | 0.00 | 39 | 945.5 |
| 20260503233826 | 82 | 75 | 5.2 | 10.4 | 0.00 | 0.00 | 0.00 | 39 | 945.5 |
| 20260503233726 | 82 | 78 | 5.2 | 9.6 | 0.00 | 0.00 | 0.00 | 39 | 945.5 |
| 20260503233626 | 82 | 101 | 5.2 | 9.6 | 0.00 | 0.00 | 0.00 | 39 | 945.5 |
| 20260503233525 | 82 | 71 | 5.2 | 9.6 | 0.00 | 0.00 | 0.00 | 39 | 945.5 |
| 20260503233425 | 82 | 96 | 5.2 | 9.6 | 0.00 | 0.00 | 0.00 | 39 | 945.6 |
| 20260503233326 | 82 | 87 | 5.2 | 9.6 | 0.00 | 0.00 | 0.00 | 39 | 945.6 |
| 20260503233226 | 82 | 123 | 5.2 | 9.6 | 0.00 | 0.00 | 0.00 | 39 | 945.6 |
| 20260503233127 | 82 | 80 | 5.2 | 9.6 | 0.00 | 0.00 | 0.00 | 39 | 945.6 |
| 20260503233026 | 82 | 100 | 5.2 | 9.6 | 0.00 | 0.00 | 0.00 | 39 | 945.6 |
| 20260503232927 | 82 | 89 | 4.3 | 9.6 | 0.00 | 0.00 | 0.00 | 39 | 945.5 |
| 20260503232826 | 82 | 135 | 4.3 | 7.8 | 0.00 | 0.00 | 0.00 | 39 | 945.6 |
| 20260503232726 | 82 | 98 | 4.3 | 7.8 | 0.00 | 0.00 | 0.00 | 39 | 945.5 |
| 20260503232627 | 82 | 73 | 3.5 | 7.8 | 0.00 | 0.00 | 0.00 | 39 | 945.5 |
| 20260503232526 | 82 | 112 | 3.5 | 7.8 | 0.00 | 0.00 | 0.00 | 39 | 945.5 |
| 20260503232427 | 82 | 67 | 3.5 | 7.8 | 0.00 | 0.00 | 0.00 | 39 | 945.5 |
| 20260503232326 | 82 | 131 | 3.5 | 7.8 | 0.00 | 0.00 | 0.00 | 39 | 945.5 |
| 20260503232227 | 82 | 114 | 3.5 | 7.8 | 0.00 | 0.00 | 0.00 | 39 | 945.5 |
| 20260503232126 | 82 | 112 | 3.5 | 8.7 | 0.00 | 0.00 | 0.00 | 39 | 945.5 |
| 20260503232026 | 82 | 118 | 3.5 | 8.7 | 0.00 | 0.00 | 0.00 | 39 | 945.6 |
| 20260503231925 | 82 | 107 | 3.5 | 8.7 | 0.00 | 0.00 | 0.00 | 39 | 945.5 |
| 20260503231825 | 82 | 81 | 3.5 | 8.7 | 0.00 | 0.00 | 0.00 | 39 | 945.5 |
| 20260503231724 | 82 | 154 | 4.3 | 8.7 | 0.00 | 0.00 | 0.00 | 39 | 945.6 |
| 20260503231625 | 82 | 102 | 4.3 | 8.7 | 0.00 | 0.00 | 0.00 | 39 | 945.5 |
| 20260503231525 | 82 | 70 | 4.3 | 8.7 | 0.00 | 0.00 | 0.00 | 38 | 945.5 |
| 20260503231425 | 82 | 72 | 4.3 | 8.7 | 0.00 | 0.00 | 0.00 | 39 | 945.5 |
| 20260503231321 | 82 | 145 | 4.3 | 8.7 | 0.00 | 0.00 | 0.00 | 39 | 945.6 |
| 20260503231220 | 82 | 91 | 4.3 | 8.7 | 0.00 | 0.00 | 0.00 | 39 | 945.6 |
| 20260503231119 | 82 | 119 | 4.3 | 8.7 | 0.00 | 0.00 | 0.00 | 39 | 945.5 |
| 20260503231015 | 82 | 66 | 3.5 | 7.8 | 0.00 | 0.00 | 0.00 | 39 | 945.5 |
| 20260503230914 | 82 | 79 | 4.3 | 7.8 | 0.00 | 0.00 | 0.00 | 39 | 945.5 |
| 20260503230815 | 82 | 129 | 4.3 | 7.8 | 0.00 | 0.00 | 0.00 | 39 | 945.5 |
| 20260503230714 | 82 | 65 | 4.3 | 7.8 | 0.00 | 0.00 | 0.00 | 39 | 945.5 |
| 20260503230615 | 82 | 56 | 3.5 | 7.8 | 0.00 | 0.00 | 0.00 | 39 | 945.6 |
| 20260503230515 | 82 | 126 | 4.3 | 7.8 | 0.00 | 0.00 | 0.00 | 39 | 945.5 |
| 20260503230415 | 82 | 120 | 4.3 | 7.8 | 0.00 | 0.00 | 0.00 | 39 | 945.6 |
| 20260503230315 | 82 | 135 | 4.3 | 7.8 | 0.00 | 0.00 | 0.00 | 39 | 945.6 |
| 20260503230214 | 81 | 109 | 4.3 | 9.6 | 0.00 | 0.00 | 0.00 | 39 | 945.6 |
| 20260503230115 | 81 | 49 | 4.3 | 9.6 | 0.00 | 0.00 | 0.00 | 39 | 945.6 |
| 20260503230014 | 81 | 91 | 4.3 | 9.6 | 0.00 | 0.00 | 0.00 | 39 | 945.6 |
| 20260503225915 | 81 | 75 | 4.3 | 9.6 | 0.00 | 0.00 | 0.00 | 39 | 945.6 |
| 20260503225814 | 81 | 102 | 4.3 | 9.6 | 0.00 | 0.00 | 0.00 | 39 | 945.6 |
| 20260503225715 | 81 | 117 | 4.3 | 9.6 | 0.00 | 0.00 | 0.00 | 40 | 945.6 |
| 20260503225615 | 81 | 93 | 4.3 | 9.6 | 0.00 | 0.00 | 0.00 | 39 | 945.6 |
| 20260503225514 | 82 | 117 | 4.3 | 9.6 | 0.00 | 0.00 | 0.00 | 40 | 945.6 |
| 20260503225415 | 82 | 121 | 4.3 | 9.6 | 0.00 | 0.00 | 0.00 | 39 | 945.6 |
| 20260503225315 | 82 | 130 | 4.3 | 9.6 | 0.00 | 0.00 | 0.00 | 39 | 945.6 |
| 20260503225215 | 81 | 122 | 4.3 | 8.7 | 0.00 | 0.00 | 0.00 | 39 | 945.6 |
| 20260503225115 | 81 | 86 | 4.3 | 8.7 | 0.00 | 0.00 | 0.00 | 40 | 945.6 |
| 20260503225014 | 81 | 95 | 4.3 | 8.7 | 0.00 | 0.00 | 0.00 | 40 | 945.6 |
| 20260503224915 | 81 | 77 | 4.3 | 8.7 | 0.00 | 0.00 | 0.00 | 40 | 945.6 |
| 20260503224814 | 81 | 27 | 4.3 | 8.7 | 0.00 | 0.00 | 0.00 | 39 | 945.6 |
| 20260503224715 | 81 | 67 | 4.3 | 8.7 | 0.00 | 0.00 | 0.00 | 39 | 945.6 |
| 20260503224615 | 81 | 54 | 4.3 | 8.7 | 0.00 | 0.00 | 0.00 | 39 | 945.6 |
| 20260503224515 | 81 | 82 | 4.3 | 8.7 | 0.00 | 0.00 | 0.00 | 39 | 945.6 |
| 20260503224414 | 81 | 59 | 4.3 | 7.8 | 0.00 | 0.00 | 0.00 | 39 | 945.6 |
| 20260503224315 | 81 | 52 | 4.3 | 7.8 | 0.00 | 0.00 | 0.00 | 40 | 945.6 |
| 20260503224215 | 81 | 86 | 4.3 | 7.8 | 0.00 | 0.00 | 0.00 | 39 | 945.6 |
| 20260503224115 | 81 | 90 | 4.3 | 7.8 | 0.00 | 0.00 | 0.00 | 39 | 945.7 |
| 20260503224015 | 81 | 101 | 4.3 | 7.8 | 0.00 | 0.00 | 0.00 | 40 | 945.6 |
| 20260503223915 | 81 | 103 | 4.3 | 7.8 | 0.00 | 0.00 | 0.00 | 40 | 945.6 |
| 20260503223815 | 81 | 79 | 4.3 | 7.8 | 0.00 | 0.00 | 0.00 | 40 | 945.6 |
| 20260503223715 | 81 | 123 | 4.3 | 7.8 | 0.00 | 0.00 | 0.00 | 40 | 945.6 |
| 20260503223615 | 81 | 68 | 4.3 | 8.7 | 0.00 | 0.00 | 0.00 | 40 | 945.7 |
| 20260503223515 | 81 | 70 | 4.3 | 8.7 | 0.00 | 0.00 | 0.00 | 40 | 945.7 |
| 20260503223415 | 81 | 100 | 4.3 | 8.7 | 0.00 | 0.00 | 0.00 | 40 | 945.7 |
| 20260503223315 | 81 | 113 | 4.3 | 8.7 | 0.00 | 0.00 | 0.00 | 40 | 945.7 |
| 20260503223216 | 81 | 147 | 4.3 | 8.7 | 0.00 | 0.00 | 0.00 | 40 | 945.7 |
| 20260503223115 | 81 | 109 | 4.3 | 8.7 | 0.00 | 0.00 | 0.00 | 39 | 945.8 |
| 20260503223015 | 81 | 77 | 4.3 | 8.7 | 0.00 | 0.00 | 0.00 | 40 | 945.7 |
| 20260503222915 | 81 | 66 | 4.3 | 8.7 | 0.00 | 0.00 | 0.00 | 40 | 945.7 |
| 20260503222814 | 81 | 102 | 4.3 | 8.7 | 0.00 | 0.00 | 0.00 | 40 | 945.7 |
| 20260503222716 | 81 | 36 | 4.3 | 8.7 | 0.00 | 0.00 | 0.00 | 40 | 945.7 |
| 20260503222615 | 81 | 72 | 4.3 | 7.8 | 0.00 | 0.00 | 0.00 | 40 | 945.7 |
| 20260503222516 | 81 | 112 | 4.3 | 7.0 | 0.00 | 0.00 | 0.00 | 40 | 945.7 |
| 20260503222415 | 81 | 78 | 3.5 | 7.0 | 0.00 | 0.00 | 0.00 | 40 | 945.7 |
| 20260503222316 | 81 | 163 | 3.5 | 7.0 | 0.00 | 0.00 | 0.00 | 40 | 945.7 |
| 20260503222215 | 81 | 75 | 3.5 | 7.0 | 0.00 | 0.00 | 0.00 | 40 | 945.7 |
| 20260503222115 | 81 | 92 | 2.6 | 7.0 | 0.00 | 0.00 | 0.00 | 40 | 945.7 |
| 20260503222016 | 81 | 82 | 2.6 | 7.0 | 0.00 | 0.00 | 0.00 | 39 | 945.7 |
| 20260503221915 | 81 | 55 | 2.6 | 7.0 | 0.00 | 0.00 | 0.00 | 39 | 945.8 |
| 20260503221816 | 81 | 116 | 2.6 | 7.0 | 0.00 | 0.00 | 0.00 | 39 | 945.8 |
| 20260503221715 | 81 | 94 | 2.6 | 7.0 | 0.00 | 0.00 | 0.00 | 40 | 945.8 |
| 20260503221615 | 81 | 85 | 3.5 | 7.0 | 0.00 | 0.00 | 0.00 | 40 | 945.8 |
| 20260503221515 | 81 | 92 | 3.5 | 7.8 | 0.00 | 0.00 | 0.00 | 40 | 945.8 |
| 20260503221413 | 81 | 104 | 3.5 | 7.8 | 0.00 | 0.00 | 0.00 | 40 | 945.9 |
| 20260503221313 | 81 | 111 | 3.5 | 7.8 | 0.00 | 0.00 | 0.00 | 41 | 945.9 |
| 20260503221214 | 81 | 115 | 4.3 | 7.8 | 0.00 | 0.00 | 0.00 | 40 | 945.9 |
| 20260503221114 | 81 | 126 | 4.3 | 8.7 | 0.00 | 0.00 | 0.00 | 40 | 946.0 |
| 20260503221014 | 81 | 154 | 4.3 | 8.7 | 0.00 | 0.00 | 0.00 | 40 | 946.0 |
| 20260503220914 | 81 | 121 | 5.2 | 8.7 | 0.00 | 0.00 | 0.00 | 40 | 946.0 |
| 20260503220814 | 81 | 50 | 5.2 | 8.7 | 0.00 | 0.00 | 0.00 | 40 | 946.0 |
| 20260503220714 | 81 | 106 | 5.2 | 8.7 | 0.00 | 0.00 | 0.00 | 41 | 946.0 |
| 20260503220613 | 81 | 98 | 5.2 | 8.7 | 0.00 | 0.00 | 0.00 | 40 | 946.0 |
| 20260503220514 | 81 | 127 | 5.2 | 8.7 | 0.00 | 0.00 | 0.00 | 40 | 946.0 |
| 20260503220414 | 81 | 75 | 5.2 | 8.7 | 0.00 | 0.00 | 0.00 | 40 | 946.0 |
| 20260503220314 | 81 | 164 | 4.3 | 8.7 | 0.00 | 0.00 | 0.00 | 41 | 946.1 |
| 20260503220214 | 81 | 105 | 4.3 | 8.7 | 0.00 | 0.00 | 0.00 | 41 | 946.0 |
| 20260503220114 | 81 | 142 | 4.3 | 8.7 | 0.00 | 0.00 | 0.00 | 41 | 946.1 |
| 20260503220014 | 81 | 139 | 3.5 | 7.0 | 0.00 | 0.00 | 0.00 | 40 | 946.1 |
| 20260503215915 | 80 | 137 | 3.5 | 7.8 | 0.00 | 0.00 | 0.00 | 40 | 946.1 |
| 20260503215814 | 80 | 93 | 3.5 | 7.8 | 0.00 | 0.00 | 0.00 | 40 | 946.2 |
| 20260503215714 | 80 | 96 | 3.5 | 7.8 | 0.00 | 0.00 | 0.00 | 41 | 946.2 |
| 20260503215615 | 80 | 34 | 3.5 | 7.8 | 0.00 | 0.00 | 0.00 | 41 | 946.2 |
| 20260503215514 | 81 | 29 | 3.5 | 7.8 | 0.00 | 0.00 | 0.00 | 41 | 946.2 |
| 20260503215414 | 81 | 108 | 3.5 | 7.8 | 0.00 | 0.00 | 0.00 | 40 | 946.3 |
| 20260503215314 | 81 | 32 | 3.5 | 7.8 | 0.00 | 0.00 | 0.00 | 40 | 946.3 |
| 20260503215214 | 80 | 31 | 3.5 | 8.7 | 0.00 | 0.00 | 0.00 | 40 | 946.3 |
| 20260503215113 | 80 | 0 | 4.3 | 8.7 | 0.00 | 0.00 | 0.00 | 41 | 946.4 |
| 20260503215014 | 80 | 27 | 4.3 | 8.7 | 0.00 | 0.00 | 0.00 | 41 | 946.4 |
| 20260503214915 | 81 | 66 | 4.3 | 8.7 | 0.00 | 0.00 | 0.00 | 41 | 946.4 |
| 20260503214815 | 81 | 79 | 3.5 | 8.7 | 0.00 | 0.00 | 0.00 | 41 | 946.5 |
| 20260503214714 | 81 | 109 | 3.5 | 8.7 | 0.00 | 0.00 | 0.00 | 41 | 946.5 |
| 20260503214614 | 81 | 95 | 3.5 | 8.7 | 0.00 | 0.00 | 0.00 | 41 | 946.5 |
| 20260503214514 | 81 | 54 | 3.5 | 8.7 | 0.00 | 0.00 | 0.00 | 41 | 946.5 |
| 20260503214415 | 81 | 34 | 3.5 | 8.7 | 0.00 | 0.00 | 0.00 | 41 | 946.5 |
| 20260503214314 | 81 | 51 | 3.5 | 8.7 | 0.00 | 0.00 | 0.00 | 40 | 946.5 |
| 20260503214214 | 81 | 71 | 2.6 | 8.7 | 0.00 | 0.00 | 0.00 | 41 | 946.5 |
| 20260503214115 | 81 | 53 | 2.6 | 6.1 | 0.00 | 0.00 | 0.00 | 41 | 946.5 |
| 20260503214014 | 81 | 90 | 2.6 | 6.1 | 0.00 | 0.00 | 0.00 | 41 | 946.5 |
| 20260503213915 | 81 | 24 | 1.7 | 6.1 | 0.00 | 0.00 | 0.00 | 41 | 946.5 |
| 20260503213814 | 81 | 89 | 1.7 | 6.1 | 0.00 | 0.00 | 0.00 | 41 | 946.6 |
| 20260503213714 | 81 | 62 | 1.7 | 5.2 | 0.00 | 0.00 | 0.00 | 41 | 946.7 |
| 20260503213614 | 81 | 105 | 1.7 | 5.2 | 0.00 | 0.00 | 0.00 | 40 | 946.7 |
| 20260503213514 | 81 | 70 | 1.7 | 4.3 | 0.00 | 0.00 | 0.00 | 40 | 946.7 |
| 20260503213414 | 81 | 0 | 1.7 | 5.2 | 0.00 | 0.00 | 0.00 | 40 | 946.7 |
| 20260503213315 | 81 | 354 | 1.7 | 5.2 | 0.00 | 0.00 | 0.00 | 40 | 946.7 |
| 20260503213215 | 81 | 285 | 1.7 | 5.2 | 0.00 | 0.00 | 0.00 | 40 | 946.8 |
| 20260503213114 | 81 | 310 | 1.7 | 7.0 | 0.00 | 0.00 | 0.00 | 40 | 946.8 |
| 20260503213014 | 80 | 341 | 2.6 | 7.0 | 0.00 | 0.00 | 0.00 | 41 | 946.9 |
| 20260503212910 | 80 | 219 | 2.6 | 7.0 | 0.00 | 0.00 | 0.00 | 41 | 946.9 |
| 20260503212809 | 80 | 51 | 2.6 | 7.0 | 0.00 | 0.00 | 0.00 | 41 | 947.0 |
| 20260503212708 | 80 | 177 | 2.6 | 7.0 | 0.00 | 0.00 | 0.00 | 41 | 947.0 |
| 20260503212608 | 80 | 0 | 3.5 | 7.0 | 0.00 | 0.00 | 0.00 | 42 | 947.1 |
| 20260503212504 | 80 | 65 | 3.5 | 7.0 | 0.00 | 0.00 | 0.00 | 42 | 947.1 |
| 20260503212404 | 80 | 93 | 3.5 | 7.0 | 0.00 | 0.00 | 0.00 | 41 | 947.1 |
| 20260503212305 | 80 | 110 | 3.5 | 7.0 | 0.00 | 0.00 | 0.00 | 42 | 947.2 |
| 20260503212203 | 80 | 111 | 4.3 | 7.0 | 0.00 | 0.00 | 0.00 | 41 | 947.2 |
| 20260503212103 | 80 | 103 | 3.5 | 7.0 | 0.00 | 0.00 | 0.00 | 42 | 947.1 |
| 20260503211959 | 79 | 33 | 3.5 | 7.0 | 0.00 | 0.00 | 0.00 | 42 | 947.2 |
| 20260503211858 | 79 | 87 | 3.5 | 7.0 | 0.00 | 0.00 | 0.00 | 43 | 947.2 |
| 20260503211759 | 79 | 103 | 3.5 | 7.0 | 0.00 | 0.00 | 0.00 | 43 | 947.2 |
| 20260503211658 | 79 | 55 | 3.5 | 7.0 | 0.00 | 0.00 | 0.00 | 44 | 947.2 |
| 20260503211558 | 79 | 96 | 3.5 | 7.0 | 0.00 | 0.00 | 0.00 | 43 | 947.3 |
| 20260503211459 | 79 | 106 | 2.6 | 7.0 | 0.00 | 0.00 | 0.00 | 43 | 947.3 |
| 20260503211358 | 79 | 115 | 2.6 | 6.1 | 0.00 | 0.00 | 0.00 | 43 | 947.3 |
| 20260503211259 | 79 | 99 | 2.6 | 6.1 | 0.00 | 0.00 | 0.00 | 42 | 947.3 |
| 20260503211158 | 79 | 84 | 2.6 | 5.2 | 0.00 | 0.00 | 0.00 | 42 | 947.3 |
| 20260503211059 | 79 | 0 | 2.6 | 5.2 | 0.00 | 0.00 | 0.00 | 43 | 947.4 |
| 20260503210957 | 78 | 69 | 2.6 | 5.2 | 0.00 | 0.00 | 0.00 | 44 | 947.4 |
| 20260503210857 | 78 | 110 | 2.6 | 5.2 | 0.00 | 0.00 | 0.00 | 44 | 947.4 |
| 20260503210757 | 79 | 200 | 2.6 | 5.2 | 0.00 | 0.00 | 0.00 | 44 | 947.4 |
| 20260503210657 | 79 | 135 | 2.6 | 5.2 | 0.00 | 0.00 | 0.00 | 43 | 947.4 |
| 20260503210556 | 79 | 114 | 2.6 | 5.2 | 0.00 | 0.00 | 0.00 | 43 | 947.5 |
| 20260503210457 | 78 | 96 | 2.6 | 5.2 | 0.00 | 0.00 | 0.00 | 44 | 947.5 |
| 20260503210357 | 78 | 147 | 2.6 | 5.2 | 0.00 | 0.00 | 0.00 | 44 | 947.6 |
| 20260503210257 | 78 | 208 | 3.5 | 6.1 | 0.00 | 0.00 | 0.00 | 44 | 947.6 |
| 20260503210157 | 78 | 174 | 3.5 | 6.1 | 0.00 | 0.00 | 0.00 | 44 | 947.6 |
| 20260503210057 | 78 | 172 | 2.6 | 6.1 | 0.00 | 0.00 | 0.00 | 44 | 947.6 |
| 20260503205957 | 78 | 241 | 2.6 | 6.1 | 0.00 | 0.00 | 0.00 | 44 | 947.6 |
| 20260503205858 | 78 | 135 | 2.6 | 6.1 | 0.00 | 0.00 | 0.00 | 44 | 947.7 |
| 20260503205757 | 78 | 120 | 2.6 | 7.0 | 0.00 | 0.00 | 0.00 | 44 | 947.7 |
| 20260503205658 | 78 | 154 | 2.6 | 7.0 | 0.00 | 0.00 | 0.00 | 44 | 947.7 |
| 20260503205557 | 78 | 17 | 2.6 | 7.0 | 0.00 | 0.00 | 0.00 | 44 | 947.7 |
| 20260503205457 | 78 | 335 | 2.6 | 7.0 | 0.00 | 0.00 | 0.00 | 44 | 947.8 |
| 20260503205357 | 78 | 54 | 2.6 | 7.0 | 0.00 | 0.00 | 0.00 | 44 | 947.8 |
| 20260503205257 | 78 | 59 | 2.6 | 7.0 | 0.00 | 0.00 | 0.00 | 43 | 947.8 |
| 20260503205157 | 78 | 42 | 2.6 | 7.0 | 0.00 | 0.00 | 0.00 | 43 | 947.8 |
| 20260503205057 | 78 | 113 | 2.6 | 7.0 | 0.00 | 0.00 | 0.00 | 43 | 947.9 |
| 20260503204958 | 78 | 358 | 3.5 | 7.0 | 0.00 | 0.00 | 0.00 | 44 | 947.9 |
| 20260503204857 | 78 | 41 | 3.5 | 7.0 | 0.00 | 0.00 | 0.00 | 43 | 947.9 |
| 20260503204758 | 78 | 0 | 3.5 | 7.0 | 0.00 | 0.00 | 0.00 | 44 | 947.9 |
| 20260503204657 | 78 | 358 | 3.5 | 8.7 | 0.00 | 0.00 | 0.00 | 44 | 948.0 |
| 20260503204557 | 78 | 26 | 4.3 | 9.6 | 0.00 | 0.00 | 0.00 | 44 | 948.0 |
| 20260503204458 | 78 | 25 | 4.3 | 9.6 | 0.00 | 0.00 | 0.00 | 44 | 948.1 |
| 20260503204358 | 78 | 54 | 5.2 | 10.4 | 0.00 | 0.00 | 0.00 | 44 | 948.1 |
| 20260503204257 | 78 | 70 | 5.2 | 10.4 | 0.00 | 0.00 | 0.00 | 44 | 948.2 |
| 20260503204158 | 78 | 47 | 5.2 | 10.4 | 0.00 | 0.00 | 0.00 | 45 | 948.2 |
| 20260503204057 | 78 | 29 | 5.2 | 10.4 | 0.00 | 0.00 | 0.00 | 45 | 948.2 |
| 20260503203958 | 78 | 343 | 4.3 | 10.4 | 0.00 | 0.00 | 0.00 | 44 | 948.3 |
| 20260503203857 | 78 | 340 | 4.3 | 10.4 | 0.00 | 0.00 | 0.00 | 45 | 948.4 |
| 20260503203758 | 78 | 26 | 4.3 | 10.4 | 0.00 | 0.00 | 0.00 | 45 | 948.4 |
| 20260503203658 | 78 | 345 | 3.5 | 10.4 | 0.00 | 0.00 | 0.00 | 45 | 948.4 |
| 20260503203557 | 78 | 1 | 2.6 | 10.4 | 0.00 | 0.00 | 0.00 | 44 | 948.4 |
| 20260503203458 | 78 | 12 | 2.6 | 10.4 | 0.00 | 0.00 | 0.00 | 44 | 948.4 |
| 20260503203357 | 78 | 1 | 1.7 | 7.8 | 0.00 | 0.00 | 0.00 | 43 | 948.4 |
| 20260503203258 | 78 | 356 | 0.9 | 4.3 | 0.00 | 0.00 | 0.00 | 43 | 948.5 |
| 20260503203157 | 78 | 291 | 1.7 | 6.1 | 0.00 | 0.00 | 0.00 | 44 | 948.4 |
| 20260503203058 | 78 | 0 | 1.7 | 8.7 | 0.00 | 0.00 | 0.00 | 44 | 948.5 |
| 20260503202953 | 77 | 223 | 2.6 | 8.7 | 0.00 | 0.00 | 0.00 | 44 | 948.5 |
| 20260503202852 | 77 | 179 | 2.6 | 8.7 | 0.00 | 0.00 | 0.00 | 44 | 948.5 |
| 20260503202752 | 77 | 353 | 2.6 | 8.7 | 0.00 | 0.00 | 0.00 | 45 | 948.5 |
| 20260503202651 | 77 | 74 | 3.5 | 8.7 | 0.00 | 0.00 | 0.00 | 46 | 948.5 |
| 20260503202552 | 77 | 312 | 3.5 | 8.7 | 0.00 | 0.00 | 0.00 | 46 | 948.5 |
| 20260503202452 | 77 | 266 | 3.5 | 8.7 | 0.00 | 0.00 | 0.00 | 47 | 948.6 |
| 20260503202352 | 77 | 0 | 4.3 | 8.7 | 0.00 | 0.00 | 0.00 | 47 | 948.6 |
| 20260503202251 | 77 | 334 | 4.3 | 8.7 | 0.00 | 0.00 | 0.00 | 47 | 948.7 |
| 20260503202152 | 77 | 55 | 4.3 | 8.7 | 0.00 | 0.00 | 0.00 | 46 | 948.7 |
| 20260503202052 | 77 | 51 | 4.3 | 8.7 | 0.00 | 0.00 | 0.00 | 45 | 948.7 |
| 20260503201952 | 77 | 35 | 3.5 | 8.7 | 0.00 | 0.00 | 0.00 | 46 | 948.7 |
| 20260503201852 | 77 | 58 | 3.5 | 8.7 | 0.00 | 0.00 | 0.00 | 46 | 948.7 |
| 20260503201752 | 77 | 22 | 3.5 | 8.7 | 0.00 | 0.00 | 0.00 | 46 | 948.7 |
| 20260503201652 | 77 | 38 | 3.5 | 8.7 | 0.00 | 0.00 | 0.00 | 46 | 948.8 |
| 20260503201553 | 78 | 58 | 2.6 | 8.7 | 0.00 | 0.00 | 0.00 | 45 | 948.8 |
| 20260503201452 | 78 | 71 | 2.6 | 8.7 | 0.00 | 0.00 | 0.00 | 45 | 948.8 |
| 20260503201352 | 78 | 91 | 1.7 | 7.0 | 0.00 | 0.00 | 0.00 | 44 | 948.8 |
| 20260503201253 | 78 | 73 | 1.7 | 6.1 | 0.00 | 0.00 | 0.00 | 44 | 948.8 |
| 20260503201152 | 77 | 108 | 1.7 | 5.2 | 0.00 | 0.00 | 0.00 | 45 | 948.8 |
| 20260503201052 | 77 | 16 | 1.7 | 5.2 | 0.00 | 0.00 | 0.00 | 45 | 948.8 |
| 20260503200953 | 77 | 210 | 1.7 | 5.2 | 0.00 | 0.00 | 0.00 | 45 | 948.9 |
| 20260503200852 | 77 | 180 | 1.7 | 4.3 | 0.00 | 0.00 | 0.00 | 45 | 948.9 |
| 20260503200752 | 77 | 302 | 1.7 | 5.2 | 0.00 | 0.00 | 0.00 | 45 | 949.0 |
| 20260503200647 | 76 | 237 | 1.7 | 5.2 | 0.00 | 0.00 | 0.00 | 45 | 949.0 |
| 20260503200548 | 76 | 0 | 1.7 | 5.2 | 0.00 | 0.00 | 0.00 | 45 | 949.1 |
| 20260503200446 | 76 | 0 | 1.7 | 5.2 | 0.00 | 0.00 | 0.00 | 45 | 949.1 |
| 20260503200346 | 76 | 104 | 2.6 | 5.2 | 0.00 | 0.00 | 0.00 | 45 | 949.1 |
| 20260503200246 | 76 | 40 | 2.6 | 5.2 | 0.00 | 0.00 | 0.00 | 46 | 949.1 |
| 20260503200146 | 76 | 325 | 2.6 | 6.1 | 0.00 | 0.00 | 0.00 | 46 | 949.1 |
| 20260503200046 | 76 | 3 | 2.6 | 6.1 | 0.00 | 0.00 | 0.00 | 47 | 949.1 |
| 20260503195946 | 76 | 4 | 2.6 | 6.1 | 0.00 | 0.00 | 0.00 | 47 | 949.1 |
| 20260503195846 | 76 | 356 | 2.6 | 6.1 | 0.00 | 0.00 | 0.00 | 47 | 949.1 |
| 20260503195746 | 76 | 54 | 2.6 | 6.1 | 0.00 | 0.00 | 0.00 | 47 | 949.0 |
| 20260503195646 | 76 | 57 | 2.6 | 6.1 | 0.00 | 0.00 | 0.00 | 48 | 949.0 |
| 20260503195546 | 76 | 26 | 2.6 | 6.1 | 0.00 | 0.00 | 0.00 | 47 | 949.0 |
| 20260503195447 | 76 | 79 | 2.6 | 6.1 | 0.00 | 0.00 | 0.00 | 48 | 949.0 |
| 20260503195346 | 75 | 85 | 2.6 | 6.1 | 0.00 | 0.00 | 0.00 | 48 | 949.0 |
| 20260503195246 | 75 | 166 | 2.6 | 6.1 | 0.00 | 0.00 | 0.00 | 48 | 948.9 |
| 20260503195146 | 75 | 166 | 1.7 | 6.1 | 0.00 | 0.00 | 0.00 | 48 | 948.9 |
| 20260503195046 | 75 | 155 | 1.7 | 5.2 | 0.00 | 0.00 | 0.00 | 48 | 948.9 |
| 20260503194946 | 75 | 51 | 1.7 | 5.2 | 0.00 | 0.00 | 0.00 | 48 | 948.9 |
| 20260503194847 | 75 | 87 | 1.7 | 5.2 | 0.00 | 0.00 | 0.00 | 49 | 949.0 |
| 20260503194747 | 74 | 39 | 1.7 | 6.1 | 0.00 | 0.00 | 0.00 | 49 | 949.0 |
| 20260503194647 | 74 | 90 | 1.7 | 6.1 | 0.00 | 0.00 | 0.00 | 49 | 949.0 |
| 20260503194546 | 74 | 189 | 2.6 | 6.1 | 0.00 | 0.00 | 0.00 | 49 | 949.0 |
| 20260503194446 | 74 | 116 | 2.6 | 7.8 | 0.00 | 0.00 | 0.00 | 49 | 949.0 |
| 20260503194347 | 74 | 161 | 2.6 | 7.8 | 0.00 | 0.00 | 0.00 | 50 | 949.1 |
| 20260503194246 | 74 | 30 | 2.6 | 7.8 | 0.00 | 0.00 | 0.00 | 50 | 949.1 |
| 20260503194146 | 74 | 194 | 2.6 | 7.8 | 0.00 | 0.00 | 0.00 | 49 | 949.1 |
| 20260503194046 | 75 | 179 | 3.5 | 7.8 | 0.00 | 0.00 | 0.00 | 49 | 949.1 |
| 20260503193947 | 75 | 176 | 2.6 | 7.8 | 0.00 | 0.00 | 0.00 | 49 | 949.1 |
| 20260503193846 | 75 | 301 | 2.6 | 7.8 | 0.00 | 0.00 | 0.00 | 49 | 949.1 |
| 20260503193747 | 75 | 285 | 2.6 | 7.8 | 0.00 | 0.00 | 0.00 | 49 | 949.1 |
| 20260503193643 | 75 | 311 | 2.6 | 7.8 | 0.00 | 0.00 | 0.00 | 49 | 949.2 |
| 20260503193542 | 75 | 58 | 2.6 | 7.8 | 0.00 | 0.00 | 0.00 | 49 | 949.2 |
| 20260503193443 | 75 | 69 | 2.6 | 7.8 | 0.00 | 0.00 | 0.00 | 48 | 949.2 |
| 20260503193340 | 75 | 48 | 2.6 | 7.0 | 0.00 | 0.00 | 0.00 | 48 | 949.2 |
| 20260503193241 | 75 | 359 | 2.6 | 7.0 | 0.00 | 0.00 | 0.00 | 48 | 949.2 |
| 20260503193140 | 75 | 16 | 2.6 | 7.0 | 0.00 | 0.00 | 0.00 | 48 | 949.2 |
| 20260503193040 | 75 | 124 | 2.6 | 4.3 | 0.00 | 0.00 | 0.00 | 49 | 949.2 |
| 20260503192941 | 75 | 182 | 2.6 | 4.3 | 0.00 | 0.00 | 0.00 | 49 | 949.3 |
| 20260503192836 | 75 | 246 | 2.6 | 4.3 | 0.00 | 0.00 | 0.00 | 49 | 949.3 |
| 20260503192736 | 75 | 317 | 2.6 | 4.3 | 0.00 | 0.00 | 0.00 | 49 | 949.3 |
| 20260503192637 | 75 | 341 | 2.6 | 7.8 | 0.00 | 0.00 | 0.00 | 49 | 949.4 |
| 20260503192536 | 74 | 223 | 2.6 | 7.8 | 0.00 | 0.00 | 0.00 | 49 | 949.4 |
| 20260503192435 | 74 | 319 | 2.6 | 7.8 | 0.00 | 0.00 | 0.00 | 50 | 949.4 |
| 20260503192335 | 75 | 321 | 3.5 | 7.8 | 0.00 | 0.00 | 0.00 | 49 | 949.4 |
| 20260503192235 | 74 | 23 | 3.5 | 7.8 | 0.00 | 0.00 | 0.00 | 49 | 949.5 |
| 20260503192135 | 74 | 40 | 3.5 | 7.8 | 0.00 | 0.00 | 0.00 | 49 | 949.5 |
| 20260503192036 | 74 | 42 | 2.6 | 7.8 | 0.00 | 0.00 | 0.00 | 49 | 949.5 |
| 20260503191935 | 74 | 332 | 2.6 | 7.8 | 0.00 | 0.00 | 0.00 | 49 | 949.5 |
| 20260503191835 | 74 | 347 | 2.6 | 7.8 | 0.00 | 0.00 | 0.00 | 49 | 949.5 |
| 20260503191735 | 74 | 37 | 2.6 | 7.8 | 0.00 | 0.00 | 0.00 | 49 | 949.5 |
| 20260503191635 | 74 | 32 | 2.6 | 7.8 | 0.00 | 0.00 | 0.00 | 51 | 949.5 |
| 20260503191536 | 74 | 126 | 2.6 | 7.0 | 0.00 | 0.00 | 0.00 | 51 | 949.5 |
| 20260503191435 | 74 | 74 | 2.6 | 6.1 | 0.00 | 0.00 | 0.00 | 50 | 949.6 |
| 20260503191335 | 74 | 78 | 2.6 | 7.0 | 0.00 | 0.00 | 0.00 | 50 | 949.6 |
| 20260503191235 | 73 | 42 | 1.7 | 7.0 | 0.00 | 0.00 | 0.00 | 51 | 949.7 |
| 20260503191135 | 73 | 37 | 2.6 | 7.8 | 0.00 | 0.00 | 0.00 | 51 | 949.7 |
| 20260503191035 | 73 | 110 | 2.6 | 7.8 | 0.00 | 0.00 | 0.00 | 51 | 949.7 |
| 20260503190931 | 73 | 199 | 2.6 | 7.8 | 0.00 | 0.00 | 0.00 | 50 | 949.7 |
| 20260503190831 | 73 | 164 | 2.6 | 7.8 | 0.00 | 0.00 | 0.00 | 50 | 949.7 |
| 20260503190731 | 73 | 80 | 2.6 | 7.8 | 0.00 | 0.00 | 0.00 | 50 | 949.7 |
| 20260503190631 | 73 | 140 | 1.7 | 7.8 | 0.00 | 0.00 | 0.00 | 50 | 949.8 |
| 20260503190530 | 73 | 84 | 1.7 | 7.8 | 0.00 | 0.00 | 0.00 | 50 | 949.8 |
| 20260503190431 | 73 | 71 | 1.7 | 7.8 | 0.00 | 0.00 | 0.00 | 50 | 949.9 |
| 20260503190330 | 73 | 18 | 1.7 | 7.8 | 0.00 | 0.00 | 0.00 | 50 | 949.9 |
| 20260503190231 | 73 | 30 | 1.7 | 7.8 | 0.00 | 0.00 | 0.00 | 50 | 949.9 |
| 20260503190131 | 73 | 356 | 1.7 | 7.8 | 0.00 | 0.00 | 0.00 | 50 | 949.9 |
| 20260503190031 | 73 | 51 | 1.7 | 7.8 | 0.00 | 0.00 | 0.00 | 50 | 949.9 |
| 20260503185931 | 73 | 84 | 1.7 | 7.8 | 0.00 | 0.00 | 0.00 | 50 | 949.9 |
| 20260503185831 | 73 | 0 | 1.7 | 7.8 | 0.00 | 0.00 | 0.00 | 50 | 949.9 |
| 20260503185731 | 73 | 71 | 2.6 | 7.8 | 0.00 | 0.00 | 0.00 | 51 | 950.0 |
| 20260503185630 | 73 | 347 | 2.6 | 7.8 | 0.00 | 0.00 | 0.00 | 51 | 950.0 |
| 20260503185531 | 73 | 93 | 2.6 | 7.8 | 0.00 | 0.00 | 0.00 | 51 | 950.1 |
| 20260503185431 | 73 | 60 | 2.6 | 7.8 | 0.00 | 0.00 | 0.00 | 50 | 950.1 |
| 20260503185331 | 73 | 74 | 2.6 | 7.8 | 0.00 | 0.00 | 0.00 | 50 | 950.1 |
| 20260503185231 | 73 | 77 | 2.6 | 7.8 | 0.00 | 0.00 | 0.00 | 50 | 950.2 |
| 20260503185132 | 73 | 101 | 2.6 | 7.8 | 0.00 | 0.00 | 0.00 | 50 | 950.2 |
| 20260503185031 | 73 | 3 | 2.6 | 7.8 | 0.00 | 0.00 | 0.00 | 51 | 950.2 |
| 20260503184931 | 73 | 284 | 2.6 | 7.0 | 0.00 | 0.00 | 0.00 | 51 | 950.3 |
| 20260503184831 | 72 | 7 | 2.6 | 7.0 | 0.00 | 0.00 | 0.00 | 51 | 950.4 |
| 20260503184731 | 72 | 7 | 2.6 | 7.0 | 0.00 | 0.00 | 0.00 | 51 | 950.5 |
| 20260503184631 | 72 | 149 | 2.6 | 7.0 | 0.00 | 0.00 | 0.00 | 51 | 950.5 |
| 20260503184532 | 72 | 133 | 1.7 | 7.0 | 0.00 | 0.00 | 0.00 | 51 | 950.5 |
| 20260503184431 | 72 | 143 | 1.7 | 7.0 | 0.00 | 0.00 | 0.00 | 52 | 950.6 |
| 20260503184331 | 72 | 250 | 1.7 | 7.0 | 0.00 | 0.00 | 0.00 | 52 | 950.7 |
| 20260503184231 | 72 | 325 | 2.6 | 7.0 | 0.00 | 0.00 | 0.00 | 52 | 950.7 |
| 20260503184131 | 72 | 206 | 2.6 | 7.0 | 0.00 | 0.00 | 0.00 | 52 | 950.8 |
| 20260503184032 | 72 | 188 | 2.6 | 7.0 | 0.00 | 0.00 | 0.00 | 52 | 950.8 |
| 20260503183932 | 72 | 123 | 2.6 | 7.0 | 0.00 | 0.00 | 0.00 | 51 | 950.7 |
| 20260503183830 | 72 | 126 | 2.6 | 6.1 | 0.00 | 0.00 | 0.00 | 51 | 950.8 |
| 20260503183730 | 72 | 86 | 1.7 | 6.1 | 0.00 | 0.00 | 0.00 | 52 | 950.8 |
| 20260503183629 | 72 | 272 | 1.7 | 6.1 | 0.00 | 0.00 | 0.00 | 52 | 950.9 |
| 20260503183526 | 72 | 306 | 1.7 | 6.1 | 0.00 | 0.00 | 0.00 | 52 | 950.9 |
| 20260503183425 | 72 | 325 | 2.6 | 6.1 | 0.00 | 0.00 | 0.00 | 52 | 950.9 |
| 20260503183326 | 72 | 13 | 2.6 | 6.1 | 0.00 | 0.00 | 0.00 | 51 | 950.9 |
| 20260503183225 | 72 | 37 | 1.7 | 6.1 | 0.00 | 0.00 | 0.00 | 51 | 950.9 |
| 20260503183126 | 72 | 53 | 1.7 | 5.2 | 0.00 | 0.00 | 0.00 | 51 | 950.9 |
| 20260503183026 | 72 | 55 | 1.7 | 4.3 | 0.00 | 0.00 | 0.00 | 51 | 950.9 |
| 20260503182925 | 71 | 309 | 1.7 | 4.3 | 0.00 | 0.00 | 0.00 | 51 | 950.9 |
| 20260503182825 | 71 | 73 | 1.7 | 4.3 | 0.00 | 0.00 | 0.00 | 52 | 951.0 |
| 20260503182724 | 71 | 68 | 1.7 | 4.3 | 0.00 | 0.00 | 0.00 | 52 | 951.1 |
| 20260503182620 | 71 | 21 | 1.7 | 4.3 | 0.00 | 0.00 | 0.00 | 51 | 951.1 |
| 20260503182519 | 71 | 32 | 1.7 | 4.3 | 0.00 | 0.00 | 0.00 | 52 | 951.1 |
| 20260503182419 | 71 | 343 | 1.7 | 4.3 | 0.00 | 0.00 | 0.00 | 52 | 951.2 |
| 20260503182320 | 71 | 67 | 1.7 | 5.2 | 0.00 | 0.00 | 0.00 | 52 | 951.2 |
| 20260503182219 | 71 | 46 | 1.7 | 5.2 | 0.00 | 0.00 | 0.00 | 51 | 951.2 |
| 20260503182120 | 71 | 79 | 1.7 | 5.2 | 0.00 | 0.00 | 0.00 | 51 | 951.3 |
| 20260503182020 | 71 | 22 | 2.6 | 6.1 | 0.00 | 0.00 | 0.00 | 51 | 951.3 |
| 20260503181919 | 71 | 237 | 2.6 | 6.1 | 0.00 | 0.00 | 0.00 | 52 | 951.3 |
| 20260503181820 | 71 | 274 | 2.6 | 6.1 | 0.00 | 0.00 | 0.00 | 52 | 951.4 |
| 20260503181720 | 71 | 210 | 2.6 | 6.1 | 0.00 | 0.00 | 0.00 | 51 | 951.4 |
| 20260503181620 | 71 | 127 | 2.6 | 6.1 | 0.00 | 0.00 | 0.00 | 52 | 951.4 |
| 20260503181520 | 71 | 92 | 2.6 | 6.1 | 0.00 | 0.00 | 0.00 | 51 | 951.4 |
| 20260503181420 | 71 | 72 | 2.6 | 6.1 | 0.00 | 0.00 | 0.00 | 52 | 951.5 |
| 20260503181320 | 71 | 65 | 1.7 | 6.1 | 0.00 | 0.00 | 0.00 | 52 | 951.5 |
| 20260503181220 | 71 | 26 | 1.7 | 6.1 | 0.00 | 0.00 | 0.00 | 53 | 951.6 |
| 20260503181120 | 71 | 63 | 1.7 | 6.1 | 0.00 | 0.00 | 0.00 | 52 | 951.5 |
| 20260503181020 | 71 | 69 | 1.7 | 5.2 | 0.00 | 0.00 | 0.00 | 52 | 951.5 |
| 20260503180920 | 71 | 68 | 1.7 | 5.2 | 0.00 | 0.00 | 0.00 | 52 | 951.6 |
| 20260503180819 | 71 | 0 | 1.7 | 5.2 | 0.00 | 0.00 | 0.00 | 52 | 951.6 |
| 20260503180720 | 70 | 88 | 1.7 | 5.2 | 0.00 | 0.00 | 0.00 | 52 | 951.6 |
| 20260503180620 | 70 | 117 | 1.7 | 5.2 | 0.00 | 0.00 | 0.00 | 53 | 951.6 |
| 20260503180519 | 70 | 208 | 2.6 | 7.8 | 0.00 | 0.00 | 0.00 | 53 | 951.6 |
| 20260503180420 | 70 | 145 | 2.6 | 7.8 | 0.00 | 0.00 | 0.00 | 53 | 951.6 |
| 20260503180320 | 70 | 126 | 2.6 | 7.8 | 0.00 | 0.00 | 0.00 | 53 | 951.7 |
| 20260503180220 | 70 | 146 | 2.6 | 7.8 | 0.00 | 0.00 | 0.00 | 54 | 951.7 |
| 20260503180120 | 70 | 188 | 2.6 | 7.8 | 0.00 | 0.00 | 0.00 | 53 | 951.7 |
| 20260503180020 | 71 | 185 | 2.6 | 7.8 | 0.00 | 0.00 | 0.00 | 53 | 951.7 |
| 20260503175920 | 71 | 148 | 2.6 | 7.8 | 0.00 | 0.00 | 0.00 | 53 | 951.7 |
| 20260503175820 | 71 | 161 | 2.6 | 7.8 | 0.00 | 0.00 | 0.00 | 53 | 951.8 |
| 20260503175720 | 71 | 86 | 2.6 | 7.8 | 0.00 | 0.00 | 0.00 | 53 | 951.8 |
| 20260503175620 | 71 | 22 | 2.6 | 7.8 | 0.00 | 0.00 | 0.00 | 53 | 951.9 |
| 20260503175521 | 71 | 37 | 2.6 | 5.2 | 0.00 | 0.00 | 0.00 | 52 | 951.9 |
| 20260503175421 | 71 | 82 | 2.6 | 5.2 | 0.00 | 0.00 | 0.00 | 52 | 951.9 |
| 20260503175320 | 71 | 349 | 2.6 | 5.2 | 0.00 | 0.00 | 0.00 | 52 | 951.9 |
| 20260503175220 | 71 | 353 | 2.6 | 5.2 | 0.00 | 0.00 | 0.00 | 52 | 951.9 |
| 20260503175120 | 71 | 50 | 2.6 | 5.2 | 0.00 | 0.00 | 0.00 | 52 | 951.9 |
| 20260503175021 | 71 | 222 | 2.6 | 5.2 | 0.00 | 0.00 | 0.00 | 52 | 952.0 |
| 20260503174920 | 71 | 117 | 2.6 | 5.2 | 0.00 | 0.00 | 0.00 | 52 | 951.9 |
| 20260503174821 | 71 | 114 | 2.6 | 5.2 | 0.00 | 0.00 | 0.00 | 52 | 952.0 |
| 20260503174720 | 71 | 165 | 1.7 | 5.2 | 0.00 | 0.00 | 0.00 | 51 | 952.0 |
| 20260503174620 | 71 | 174 | 1.7 | 5.2 | 0.00 | 0.00 | 0.00 | 50 | 951.9 |
| 20260503174521 | 71 | 123 | 1.7 | 5.2 | 0.00 | 0.00 | 0.00 | 51 | 952.0 |
| 20260503174420 | 71 | 110 | 1.7 | 5.2 | 0.00 | 0.00 | 0.00 | 51 | 952.0 |
| 20260503174320 | 70 | 202 | 2.6 | 5.2 | 0.00 | 0.00 | 0.00 | 51 | 952.1 |
| 20260503174221 | 70 | 282 | 1.7 | 5.2 | 0.00 | 0.00 | 0.00 | 51 | 952.1 |
| 20260503174120 | 70 | 342 | 2.6 | 5.2 | 0.00 | 0.00 | 0.00 | 51 | 952.1 |
| 20260503174020 | 70 | 8 | 1.7 | 5.2 | 0.00 | 0.00 | 0.00 | 51 | 952.1 |
| 20260503173921 | 70 | 11 | 1.7 | 4.3 | 0.00 | 0.00 | 0.00 | 53 | 952.1 |
| 20260503173820 | 69 | 237 | 2.6 | 5.2 | 0.00 | 0.00 | 0.00 | 54 | 952.1 |
| 20260503173719 | 69 | 343 | 2.6 | 5.2 | 0.00 | 0.00 | 0.00 | 54 | 952.2 |
| 20260503173615 | 70 | 163 | 2.6 | 5.2 | 0.00 | 0.00 | 0.00 | 53 | 952.2 |
| 20260503173515 | 70 | 176 | 2.6 | 5.2 | 0.00 | 0.00 | 0.00 | 52 | 952.1 |
| 20260503173415 | 70 | 141 | 2.6 | 5.2 | 0.00 | 0.00 | 0.00 | 52 | 952.1 |
| 20260503173314 | 70 | 169 | 2.6 | 5.2 | 0.00 | 0.00 | 0.00 | 52 | 952.2 |
| 20260503173215 | 69 | 157 | 2.6 | 5.2 | 0.00 | 0.00 | 0.00 | 52 | 952.2 |
| 20260503173114 | 69 | 72 | 2.6 | 5.2 | 0.00 | 0.00 | 0.00 | 53 | 952.2 |
| 20260503173015 | 69 | 158 | 2.6 | 5.2 | 0.00 | 0.00 | 0.00 | 53 | 952.2 |
| 20260503172915 | 69 | 77 | 2.6 | 5.2 | 0.00 | 0.00 | 0.00 | 53 | 952.2 |
| 20260503172815 | 69 | 121 | 2.6 | 5.2 | 0.00 | 0.00 | 0.00 | 53 | 952.3 |
| 20260503172715 | 69 | 178 | 2.6 | 6.1 | 0.00 | 0.00 | 0.00 | 53 | 952.3 |
| 20260503172615 | 69 | 73 | 2.6 | 6.1 | 0.00 | 0.00 | 0.00 | 53 | 952.3 |
| 20260503172514 | 69 | 121 | 2.6 | 6.1 | 0.00 | 0.00 | 0.00 | 53 | 952.4 |
| 20260503172415 | 69 | 84 | 2.6 | 6.1 | 0.00 | 0.00 | 0.00 | 53 | 952.4 |
| 20260503172314 | 69 | 72 | 2.6 | 6.1 | 0.00 | 0.00 | 0.00 | 54 | 952.5 |
| 20260503172215 | 69 | 85 | 2.6 | 6.1 | 0.00 | 0.00 | 0.00 | 53 | 952.5 |
| 20260503172115 | 69 | 55 | 1.7 | 6.1 | 0.00 | 0.00 | 0.00 | 53 | 952.5 |
| 20260503172015 | 69 | 36 | 1.7 | 6.1 | 0.00 | 0.00 | 0.00 | 53 | 952.5 |
| 20260503171915 | 69 | 80 | 1.7 | 6.1 | 0.00 | 0.00 | 0.00 | 53 | 952.5 |
| 20260503171815 | 69 | 28 | 1.7 | 6.1 | 0.00 | 0.00 | 0.00 | 53 | 952.5 |
| 20260503171715 | 69 | 22 | 1.7 | 5.2 | 0.00 | 0.00 | 0.00 | 53 | 952.5 |
| 20260503171614 | 69 | 313 | 2.6 | 6.1 | 0.00 | 0.00 | 0.00 | 53 | 952.6 |
| 20260503171515 | 69 | 72 | 2.6 | 6.1 | 0.00 | 0.00 | 0.00 | 53 | 952.6 |
| 20260503171415 | 69 | 54 | 2.6 | 6.1 | 0.00 | 0.00 | 0.00 | 53 | 952.6 |
| 20260503171315 | 69 | 33 | 2.6 | 6.1 | 0.00 | 0.00 | 0.00 | 53 | 952.6 |
| 20260503171214 | 69 | 81 | 2.6 | 6.1 | 0.00 | 0.00 | 0.00 | 54 | 952.6 |
| 20260503171115 | 69 | 87 | 2.6 | 6.1 | 0.00 | 0.00 | 0.00 | 54 | 952.6 |
| 20260503171015 | 69 | 114 | 2.6 | 6.1 | 0.00 | 0.00 | 0.00 | 53 | 952.6 |
| 20260503170915 | 69 | 90 | 2.6 | 6.1 | 0.00 | 0.00 | 0.00 | 54 | 952.6 |
| 20260503170815 | 69 | 19 | 2.6 | 6.1 | 0.00 | 0.00 | 0.00 | 54 | 952.7 |
| 20260503170715 | 70 | 131 | 1.7 | 6.1 | 0.00 | 0.00 | 0.00 | 53 | 952.7 |
| 20260503170615 | 70 | 103 | 1.7 | 6.1 | 0.00 | 0.00 | 0.00 | 53 | 952.7 |
| 20260503170515 | 70 | 149 | 1.7 | 4.3 | 0.00 | 0.00 | 0.00 | 53 | 952.7 |
| 20260503170415 | 70 | 119 | 1.7 | 4.3 | 0.00 | 0.00 | 0.00 | 52 | 952.7 |
| 20260503170315 | 70 | 37 | 1.7 | 4.3 | 0.00 | 0.00 | 0.00 | 53 | 952.7 |
| 20260503170214 | 70 | 62 | 1.7 | 4.3 | 0.00 | 0.00 | 0.00 | 53 | 952.7 |
| 20260503170115 | 70 | 357 | 1.7 | 5.2 | 0.00 | 0.00 | 0.00 | 53 | 952.7 |
| 20260503160157 | 67 | 332 | 1.7 | 5.2 | 0.00 | 0.00 | 0.00 | 54 | 953.1 |
| 20260503150953 | 65 | 325 | 1.7 | 4.3 | 0.00 | 0.00 | 0.00 | 58 | 953.5 |
| 20260503150853 | 65 | 312 | 1.7 | 4.3 | 0.00 | 0.00 | 0.00 | 57 | 953.4 |
| 20260503150753 | 65 | 316 | 1.7 | 5.2 | 0.00 | 0.00 | 0.00 | 57 | 953.4 |
| 20260503150653 | 65 | 293 | 1.7 | 5.2 | 0.00 | 0.00 | 0.00 | 56 | 953.4 |
| 20260503150553 | 65 | 314 | 1.7 | 5.2 | 0.00 | 0.00 | 0.00 | 56 | 953.4 |
| 20260503150453 | 65 | 359 | 1.7 | 5.2 | 0.00 | 0.00 | 0.00 | 57 | 953.4 |
| 20260503150353 | 65 | 0 | 1.7 | 5.2 | 0.00 | 0.00 | 0.00 | 57 | 953.4 |
| 20260503150253 | 64 | 208 | 2.6 | 5.2 | 0.00 | 0.00 | 0.00 | 58 | 953.5 |
| 20260503150153 | 64 | 0 | 2.6 | 5.2 | 0.00 | 0.00 | 0.00 | 59 | 953.5 |
| 20260503140234 | 63 | 0 | 0.0 | 2.6 | 0.00 | 0.00 | 0.00 | 59 | 952.9 |
| 20260503140134 | 63 | 0 | 0.9 | 3.5 | 0.00 | 0.00 | 0.00 | 59 | 952.9 |
| 20260503131326 | 62 | 307 | 1.7 | 2.6 | 0.00 | 0.00 | 0.00 | 62 | 952.6 |
| 20260503131225 | 62 | 11 | 1.7 | 2.6 | 0.00 | 0.00 | 0.00 | 63 | 952.6 |
| 20260503131125 | 62 | 340 | 1.7 | 2.6 | 0.00 | 0.00 | 0.00 | 63 | 952.6 |
| 20260503131025 | 62 | 0 | 1.7 | 2.6 | 0.00 | 0.00 | 0.00 | 63 | 952.5 |
| 20260503130924 | 62 | 342 | 1.7 | 2.6 | 0.00 | 0.00 | 0.00 | 63 | 952.5 |
| 20260503130825 | 62 | 5 | 1.7 | 2.6 | 0.00 | 0.00 | 0.00 | 63 | 952.5 |
| 20260503130726 | 62 | 353 | 1.7 | 2.6 | 0.00 | 0.00 | 0.00 | 63 | 952.4 |
| 20260503130624 | 62 | 341 | 1.7 | 2.6 | 0.00 | 0.00 | 0.00 | 63 | 952.4 |
| 20260503130523 | 62 | 4 | 0.9 | 2.6 | 0.00 | 0.00 | 0.00 | 63 | 952.4 |
| 20260503130424 | 61 | 353 | 0.9 | 2.6 | 0.00 | 0.00 | 0.00 | 64 | 952.3 |
| 20260503130323 | 61 | 0 | 0.9 | 2.6 | 0.00 | 0.00 | 0.00 | 64 | 952.3 |
| 20260503130220 | 61 | 2 | 0.9 | 2.6 | 0.00 | 0.00 | 0.00 | 64 | 952.3 |
| 20260503130119 | 61 | 7 | 0.9 | 2.6 | 0.00 | 0.00 | 0.00 | 63 | 952.3 |
| 20260503120134 | 59 | 300 | 0.9 | 2.6 | 0.00 | 0.00 | 0.00 | 67 | 951.7 |
| 20260503110803 | 60 | 223 | 0.9 | 1.7 | 0.00 | 0.00 | 0.00 | 66 | 951.2 |
| 20260503110703 | 60 | 253 | 0.9 | 1.7 | 0.00 | 0.00 | 0.00 | 66 | 951.2 |
| 20260503110604 | 60 | 269 | 0.9 | 1.7 | 0.00 | 0.00 | 0.00 | 66 | 951.1 |
| 20260503110503 | 60 | 250 | 0.9 | 1.7 | 0.00 | 0.00 | 0.00 | 66 | 951.1 |
| 20260503110403 | 60 | 269 | 0.9 | 1.7 | 0.00 | 0.00 | 0.00 | 66 | 951.1 |
| 20260503110303 | 60 | 246 | 0.9 | 1.7 | 0.00 | 0.00 | 0.00 | 66 | 951.1 |
| 20260503110203 | 60 | 249 | 0.9 | 1.7 | 0.00 | 0.00 | 0.00 | 66 | 951.1 |
| 20260503100205 | 61 | 305 | 1.7 | 2.6 | 0.00 | 0.00 | 0.00 | 64 | 951.0 |
| 20260503100104 | 61 | 274 | 1.7 | 2.6 | 0.00 | 0.00 | 0.00 | 64 | 951.0 |
| 20260503090506 | 62 | 296 | 1.7 | 3.5 | 0.00 | 0.00 | 0.00 | 63 | 951.3 |
| 20260503090406 | 62 | 310 | 1.7 | 3.5 | 0.00 | 0.00 | 0.00 | 63 | 951.3 |
| 20260503090305 | 62 | 295 | 1.7 | 3.5 | 0.00 | 0.00 | 0.00 | 63 | 951.3 |
| 20260503090206 | 62 | 297 | 1.7 | 3.5 | 0.00 | 0.00 | 0.00 | 63 | 951.3 |
| 20260503090106 | 62 | 291 | 1.7 | 3.5 | 0.00 | 0.00 | 0.00 | 63 | 951.3 |
| 20260503081538 | 61 | 292 | 2.6 | 4.3 | 0.00 | 0.00 | 0.00 | 64 | 951.5 |
| 20260503081438 | 61 | 317 | 2.6 | 4.3 | 0.00 | 0.00 | 0.00 | 64 | 951.5 |
| 20260503081339 | 61 | 296 | 2.6 | 3.5 | 0.00 | 0.00 | 0.00 | 64 | 951.5 |
| 20260503081238 | 61 | 283 | 2.6 | 4.3 | 0.00 | 0.00 | 0.00 | 64 | 951.5 |
| 20260503081138 | 61 | 265 | 2.6 | 4.3 | 0.00 | 0.00 | 0.00 | 64 | 951.5 |
| 20260503081039 | 61 | 291 | 2.6 | 4.3 | 0.00 | 0.00 | 0.00 | 64 | 951.5 |
| 20260503080938 | 61 | 314 | 2.6 | 4.3 | 0.00 | 0.00 | 0.00 | 64 | 951.5 |
| 20260503080838 | 61 | 300 | 2.6 | 4.3 | 0.00 | 0.00 | 0.00 | 64 | 951.5 |
| 20260503080738 | 61 | 313 | 2.6 | 4.3 | 0.00 | 0.00 | 0.00 | 64 | 951.5 |
| 20260503080638 | 61 | 295 | 2.6 | 4.3 | 0.00 | 0.00 | 0.00 | 64 | 951.4 |
| 20260503080538 | 61 | 345 | 2.6 | 4.3 | 0.00 | 0.00 | 0.00 | 64 | 951.4 |
| 20260503080438 | 61 | 305 | 2.6 | 4.3 | 0.00 | 0.00 | 0.00 | 64 | 951.4 |
| 20260503080339 | 61 | 327 | 2.6 | 4.3 | 0.00 | 0.00 | 0.00 | 64 | 951.4 |
| 20260503080238 | 61 | 298 | 2.6 | 4.3 | 0.00 | 0.00 | 0.00 | 64 | 951.4 |
| 20260503080138 | 61 | 321 | 2.6 | 3.5 | 0.00 | 0.00 | 0.00 | 64 | 951.4 |
| 20260503072932 | 61 | 292 | 2.6 | 5.2 | 0.00 | 0.00 | 0.00 | 66 | 951.8 |
| 20260503072827 | 61 | 307 | 2.6 | 5.2 | 0.00 | 0.00 | 0.00 | 66 | 951.8 |
| 20260503072727 | 61 | 305 | 2.6 | 5.2 | 0.00 | 0.00 | 0.00 | 65 | 951.8 |
| 20260503072627 | 61 | 297 | 2.6 | 5.2 | 0.00 | 0.00 | 0.00 | 65 | 951.9 |
| 20260503072524 | 61 | 279 | 2.6 | 3.5 | 0.00 | 0.00 | 0.00 | 65 | 951.8 |
| 20260503072423 | 61 | 310 | 2.6 | 3.5 | 0.00 | 0.00 | 0.00 | 65 | 951.8 |
| 20260503072324 | 61 | 293 | 2.6 | 3.5 | 0.00 | 0.00 | 0.00 | 65 | 951.8 |
| 20260503072208 | 61 | 309 | 2.6 | 3.5 | 0.00 | 0.00 | 0.00 | 65 | 951.7 |
| 20260503072108 | 61 | 297 | 1.7 | 3.5 | 0.00 | 0.00 | 0.00 | 65 | 951.7 |
| 20260503072007 | 61 | 275 | 1.7 | 3.5 | 0.00 | 0.00 | 0.00 | 65 | 951.7 |
| 20260503071907 | 61 | 286 | 1.7 | 3.5 | 0.00 | 0.00 | 0.00 | 65 | 951.7 |
| 20260503071808 | 61 | 281 | 2.6 | 3.5 | 0.00 | 0.00 | 0.00 | 65 | 951.7 |
| 20260503071708 | 61 | 256 | 2.6 | 3.5 | 0.00 | 0.00 | 0.00 | 65 | 951.7 |
| 20260503071608 | 61 | 288 | 2.6 | 3.5 | 0.00 | 0.00 | 0.00 | 65 | 951.7 |
| 20260503071507 | 61 | 300 | 2.6 | 3.5 | 0.00 | 0.00 | 0.00 | 65 | 951.7 |
| 20260503071408 | 61 | 312 | 2.6 | 3.5 | 0.00 | 0.00 | 0.00 | 65 | 951.7 |
| 20260503071308 | 61 | 307 | 2.6 | 3.5 | 0.00 | 0.00 | 0.00 | 65 | 951.6 |
| 20260503071207 | 61 | 296 | 2.6 | 3.5 | 0.00 | 0.00 | 0.00 | 65 | 951.6 |
| 20260503071107 | 61 | 309 | 2.6 | 3.5 | 0.00 | 0.00 | 0.00 | 65 | 951.7 |
| 20260503071008 | 61 | 294 | 2.6 | 3.5 | 0.00 | 0.00 | 0.00 | 65 | 951.6 |
| 20260503070908 | 61 | 324 | 1.7 | 3.5 | 0.00 | 0.00 | 0.00 | 65 | 951.6 |
| 20260503070808 | 61 | 315 | 1.7 | 3.5 | 0.00 | 0.00 | 0.00 | 65 | 951.6 |
| 20260503070708 | 61 | 332 | 1.7 | 3.5 | 0.00 | 0.00 | 0.00 | 66 | 951.6 |
| 20260503070608 | 61 | 293 | 0.9 | 2.6 | 0.00 | 0.00 | 0.00 | 66 | 951.6 |
| 20260503070507 | 61 | 306 | 0.9 | 2.6 | 0.00 | 0.00 | 0.00 | 66 | 951.6 |
| 20260503070408 | 61 | 290 | 0.9 | 2.6 | 0.00 | 0.00 | 0.00 | 66 | 951.6 |
| 20260503070308 | 61 | 307 | 0.9 | 2.6 | 0.00 | 0.00 | 0.00 | 66 | 951.6 |
| 20260503070208 | 61 | 303 | 0.9 | 2.6 | 0.00 | 0.00 | 0.00 | 66 | 951.6 |
| 20260503070108 | 61 | 309 | 0.9 | 2.6 | 0.00 | 0.00 | 0.00 | 66 | 951.7 |
| 20260503060309 | 63 | 101 | 2.6 | 3.5 | 0.00 | 0.00 | 0.00 | 63 | 951.8 |
| 20260503060209 | 63 | 84 | 2.6 | 4.3 | 0.00 | 0.00 | 0.00 | 63 | 951.8 |
| 20260503060110 | 63 | 33 | 2.6 | 4.3 | 0.00 | 0.00 | 0.00 | 63 | 951.8 |
| 20260503055110 | 64 | 18 | 2.6 | 3.5 | 0.00 | 0.00 | 0.00 | 63 | 951.8 |
| 20260503055009 | 64 | 35 | 2.6 | 3.5 | 0.00 | 0.00 | 0.00 | 63 | 951.8 |
| 20260503054909 | 64 | 35 | 2.6 | 3.5 | 0.00 | 0.00 | 0.00 | 63 | 951.7 |
| 20260503054808 | 64 | 35 | 2.6 | 3.5 | 0.00 | 0.00 | 0.00 | 63 | 951.7 |
| 20260503054709 | 64 | 73 | 2.6 | 3.5 | 0.00 | 0.00 | 0.00 | 63 | 951.7 |
| 20260503054609 | 64 | 44 | 2.6 | 3.5 | 0.00 | 0.00 | 0.00 | 63 | 951.7 |
| 20260503054509 | 64 | 50 | 2.6 | 3.5 | 0.00 | 0.00 | 0.00 | 63 | 951.7 |
| 20260503054408 | 64 | 31 | 2.6 | 3.5 | 0.00 | 0.00 | 0.00 | 63 | 951.7 |
| 20260503054309 | 64 | 55 | 2.6 | 3.5 | 0.00 | 0.00 | 0.00 | 63 | 951.7 |
| 20260503054209 | 64 | 55 | 2.6 | 3.5 | 0.00 | 0.00 | 0.00 | 63 | 951.7 |
| 20260503054109 | 64 | 50 | 2.6 | 3.5 | 0.00 | 0.00 | 0.00 | 63 | 951.7 |
| 20260503054008 | 64 | 12 | 2.6 | 3.5 | 0.00 | 0.00 | 0.00 | 63 | 951.7 |
| 20260503053856 | 64 | 39 | 2.6 | 3.5 | 0.00 | 0.00 | 0.00 | 63 | 951.8 |
| 20260503053756 | 64 | 22 | 2.6 | 3.5 | 0.00 | 0.00 | 0.00 | 62 | 951.8 |
| 20260503053641 | 64 | 31 | 2.6 | 3.5 | 0.00 | 0.00 | 0.00 | 62 | 951.8 |
| 20260503053526 | 64 | 9 | 2.6 | 5.2 | 0.00 | 0.00 | 0.00 | 62 | 951.7 |
| 20260503053426 | 64 | 24 | 2.6 | 5.2 | 0.00 | 0.00 | 0.00 | 62 | 951.7 |
| 20260503053325 | 64 | 27 | 2.6 | 5.2 | 0.00 | 0.00 | 0.00 | 62 | 951.7 |
| 20260503053226 | 64 | 13 | 2.6 | 5.2 | 0.00 | 0.00 | 0.00 | 62 | 951.7 |
| 20260503053126 | 64 | 36 | 2.6 | 5.2 | 0.00 | 0.00 | 0.00 | 62 | 951.7 |
| 20260503053022 | 64 | 31 | 3.5 | 5.2 | 0.00 | 0.00 | 0.00 | 62 | 951.7 |
| 20260503052917 | 64 | 48 | 3.5 | 5.2 | 0.00 | 0.00 | 0.00 | 62 | 951.8 |
| 20260503052817 | 64 | 3 | 3.5 | 5.2 | 0.00 | 0.00 | 0.00 | 62 | 951.8 |
| 20260503052717 | 64 | 25 | 3.5 | 5.2 | 0.00 | 0.00 | 0.00 | 62 | 951.8 |
| 20260503052617 | 64 | 39 | 3.5 | 5.2 | 0.00 | 0.00 | 0.00 | 62 | 951.8 |
| 20260503052517 | 64 | 41 | 3.5 | 5.2 | 0.00 | 0.00 | 0.00 | 63 | 951.8 |
| 20260503052417 | 64 | 21 | 3.5 | 5.2 | 0.00 | 0.00 | 0.00 | 63 | 951.8 |
| 20260503052317 | 64 | 21 | 3.5 | 5.2 | 0.00 | 0.00 | 0.00 | 63 | 951.8 |
| 20260503052217 | 64 | 26 | 3.5 | 5.2 | 0.00 | 0.00 | 0.00 | 63 | 951.9 |
| 20260503052117 | 64 | 41 | 3.5 | 5.2 | 0.00 | 0.00 | 0.00 | 63 | 951.9 |
| 20260503052017 | 64 | 40 | 3.5 | 5.2 | 0.00 | 0.00 | 0.00 | 63 | 952.0 |
| 20260503051917 | 64 | 30 | 3.5 | 5.2 | 0.00 | 0.00 | 0.00 | 63 | 952.0 |
| 20260503051817 | 64 | 32 | 3.5 | 5.2 | 0.00 | 0.00 | 0.00 | 63 | 952.0 |
| 20260503051717 | 64 | 35 | 3.5 | 5.2 | 0.00 | 0.00 | 0.00 | 63 | 951.9 |
| 20260503051617 | 64 | 22 | 3.5 | 5.2 | 0.00 | 0.00 | 0.00 | 63 | 951.9 |
| 20260503051517 | 64 | 19 | 3.5 | 5.2 | 0.00 | 0.00 | 0.00 | 63 | 951.9 |
| 20260503051417 | 64 | 24 | 3.5 | 5.2 | 0.00 | 0.00 | 0.00 | 63 | 951.9 |
| 20260503051311 | 64 | 23 | 3.5 | 4.3 | 0.00 | 0.00 | 0.00 | 63 | 952.0 |
| 20260503051210 | 64 | 34 | 3.5 | 4.3 | 0.00 | 0.00 | 0.00 | 63 | 952.0 |
| 20260503051110 | 64 | 23 | 3.5 | 4.3 | 0.00 | 0.00 | 0.00 | 63 | 952.0 |
| 20260503051009 | 64 | 16 | 3.5 | 4.3 | 0.00 | 0.00 | 0.00 | 63 | 952.0 |
| 20260503050910 | 64 | 6 | 3.5 | 4.3 | 0.00 | 0.00 | 0.00 | 63 | 952.0 |
| 20260503050810 | 64 | 14 | 3.5 | 4.3 | 0.00 | 0.00 | 0.00 | 63 | 951.9 |
| 20260503050710 | 64 | 9 | 3.5 | 4.3 | 0.00 | 0.00 | 0.00 | 63 | 951.9 |
| 20260503050610 | 64 | 19 | 3.5 | 4.3 | 0.00 | 0.00 | 0.00 | 63 | 951.9 |
| 20260503050510 | 64 | 26 | 3.5 | 4.3 | 0.00 | 0.00 | 0.00 | 63 | 951.9 |
| 20260503050409 | 64 | 34 | 3.5 | 4.3 | 0.00 | 0.00 | 0.00 | 64 | 951.9 |
| 20260503050310 | 64 | 22 | 2.6 | 3.5 | 0.00 | 0.00 | 0.00 | 63 | 951.9 |
| 20260503050210 | 64 | 34 | 2.6 | 4.3 | 0.00 | 0.00 | 0.00 | 63 | 951.9 |
| 20260503050109 | 64 | 15 | 2.6 | 4.3 | 0.00 | 0.00 | 0.00 | 63 | 951.9 |
| 20260503050011 | 64 | 36 | 2.6 | 4.3 | 0.00 | 0.00 | 0.00 | 63 | 951.9 |
| 20260503045910 | 64 | 19 | 2.6 | 4.3 | 0.00 | 0.00 | 0.00 | 63 | 951.9 |
| 20260503045810 | 64 | 33 | 2.6 | 4.3 | 0.00 | 0.00 | 0.00 | 63 | 951.8 |
| 20260503045710 | 64 | 15 | 2.6 | 4.3 | 0.00 | 0.00 | 0.00 | 63 | 951.8 |
| 20260503045610 | 64 | 5 | 3.5 | 4.3 | 0.00 | 0.00 | 0.00 | 63 | 951.8 |
| 20260503045510 | 64 | 42 | 3.5 | 4.3 | 0.00 | 0.00 | 0.00 | 63 | 951.8 |
| 20260503045410 | 64 | 46 | 3.5 | 4.3 | 0.00 | 0.00 | 0.00 | 63 | 951.8 |
| 20260503045310 | 64 | 52 | 3.5 | 4.3 | 0.00 | 0.00 | 0.00 | 63 | 951.7 |
| 20260503045210 | 64 | 43 | 2.6 | 3.5 | 0.00 | 0.00 | 0.00 | 63 | 951.7 |
| 20260503045110 | 64 | 30 | 2.6 | 3.5 | 0.00 | 0.00 | 0.00 | 63 | 951.7 |
| 20260503045010 | 64 | 51 | 2.6 | 3.5 | 0.00 | 0.00 | 0.00 | 63 | 951.7 |
| 20260503044909 | 64 | 26 | 2.6 | 3.5 | 0.00 | 0.00 | 0.00 | 63 | 951.7 |
| 20260503044810 | 64 | 38 | 2.6 | 3.5 | 0.00 | 0.00 | 0.00 | 63 | 951.7 |
| 20260503044710 | 64 | 39 | 1.7 | 3.5 | 0.00 | 0.00 | 0.00 | 63 | 951.7 |
| 20260503044610 | 64 | 19 | 1.7 | 3.5 | 0.00 | 0.00 | 0.00 | 63 | 951.7 |
| 20260503044510 | 64 | 56 | 1.7 | 3.5 | 0.00 | 0.00 | 0.00 | 63 | 951.7 |
| 20260503044410 | 64 | 48 | 1.7 | 3.5 | 0.00 | 0.00 | 0.00 | 63 | 951.7 |
| 20260503044310 | 64 | 45 | 1.7 | 3.5 | 0.00 | 0.00 | 0.00 | 63 | 951.7 |
| 20260503044210 | 64 | 65 | 1.7 | 3.5 | 0.00 | 0.00 | 0.00 | 63 | 951.7 |
| 20260503044110 | 64 | 41 | 1.7 | 3.5 | 0.00 | 0.00 | 0.00 | 63 | 951.7 |
| 20260503044011 | 64 | 67 | 1.7 | 3.5 | 0.00 | 0.00 | 0.00 | 63 | 951.7 |
| 20260503043910 | 64 | 77 | 1.7 | 3.5 | 0.00 | 0.00 | 0.00 | 63 | 951.7 |
| 20260503043810 | 64 | 31 | 1.7 | 3.5 | 0.00 | 0.00 | 0.00 | 63 | 951.8 |
| 20260503043656 | 64 | 50 | 1.7 | 3.5 | 0.00 | 0.00 | 0.00 | 63 | 951.8 |
| 20260503043557 | 64 | 59 | 1.7 | 3.5 | 0.00 | 0.00 | 0.00 | 63 | 951.8 |
| 20260503043457 | 64 | 68 | 1.7 | 3.5 | 0.00 | 0.00 | 0.00 | 63 | 951.7 |
| 20260503043357 | 64 | 33 | 1.7 | 3.5 | 0.00 | 0.00 | 0.00 | 62 | 951.7 |
| 20260503043256 | 64 | 74 | 1.7 | 3.5 | 0.00 | 0.00 | 0.00 | 62 | 951.7 |
| 20260503043157 | 64 | 46 | 1.7 | 3.5 | 0.00 | 0.00 | 0.00 | 62 | 951.7 |
| 20260503043057 | 64 | 25 | 1.7 | 3.5 | 0.00 | 0.00 | 0.00 | 62 | 951.7 |
| 20260503042957 | 64 | 77 | 1.7 | 3.5 | 0.00 | 0.00 | 0.00 | 62 | 951.8 |
| 20260503042856 | 64 | 74 | 1.7 | 3.5 | 0.00 | 0.00 | 0.00 | 62 | 951.8 |
| 20260503042756 | 64 | 70 | 1.7 | 3.5 | 0.00 | 0.00 | 0.00 | 62 | 951.8 |
| 20260503042642 | 64 | 34 | 1.7 | 3.5 | 0.00 | 0.00 | 0.00 | 61 | 951.8 |
| 20260503042542 | 64 | 33 | 1.7 | 3.5 | 0.00 | 0.00 | 0.00 | 61 | 951.8 |
| 20260503042442 | 64 | 51 | 1.7 | 3.5 | 0.00 | 0.00 | 0.00 | 61 | 951.8 |
| 20260503042343 | 64 | 333 | 1.7 | 3.5 | 0.00 | 0.00 | 0.00 | 61 | 951.8 |
| 20260503042241 | 64 | 65 | 1.7 | 3.5 | 0.00 | 0.00 | 0.00 | 61 | 951.9 |
| 20260503042128 | 65 | 40 | 1.7 | 3.5 | 0.00 | 0.00 | 0.00 | 61 | 951.9 |
| 20260503042027 | 65 | 48 | 2.6 | 3.5 | 0.00 | 0.00 | 0.00 | 61 | 951.9 |
| 20260503041927 | 65 | 68 | 1.7 | 3.5 | 0.00 | 0.00 | 0.00 | 60 | 951.9 |
| 20260503041827 | 65 | 54 | 1.7 | 3.5 | 0.00 | 0.00 | 0.00 | 60 | 952.0 |
| 20260503041728 | 65 | 26 | 1.7 | 3.5 | 0.00 | 0.00 | 0.00 | 60 | 951.9 |
| 20260503041627 | 65 | 27 | 1.7 | 3.5 | 0.00 | 0.00 | 0.00 | 60 | 952.0 |
| 20260503041527 | 65 | 66 | 1.7 | 3.5 | 0.00 | 0.00 | 0.00 | 60 | 951.9 |
| 20260503041426 | 65 | 33 | 1.7 | 3.5 | 0.00 | 0.00 | 0.00 | 60 | 951.9 |
| 20260503041327 | 65 | 52 | 1.7 | 3.5 | 0.00 | 0.00 | 0.00 | 60 | 951.9 |
| 20260503041227 | 65 | 53 | 1.7 | 5.2 | 0.00 | 0.00 | 0.00 | 60 | 952.0 |
| 20260503041127 | 65 | 71 | 2.6 | 5.2 | 0.00 | 0.00 | 0.00 | 60 | 951.9 |
| 20260503041028 | 65 | 40 | 2.6 | 5.2 | 0.00 | 0.00 | 0.00 | 60 | 951.9 |
| 20260503040928 | 65 | 20 | 2.6 | 5.2 | 0.00 | 0.00 | 0.00 | 60 | 951.9 |
| 20260503040827 | 65 | 303 | 2.6 | 5.2 | 0.00 | 0.00 | 0.00 | 60 | 951.9 |
| 20260503040712 | 65 | 35 | 2.6 | 5.2 | 0.00 | 0.00 | 0.00 | 60 | 951.9 |
| 20260503040613 | 65 | 92 | 3.5 | 5.2 | 0.00 | 0.00 | 0.00 | 59 | 951.9 |
| 20260503040512 | 65 | 51 | 3.5 | 5.2 | 0.00 | 0.00 | 0.00 | 59 | 951.9 |
| 20260503040413 | 65 | 47 | 3.5 | 5.2 | 0.00 | 0.00 | 0.00 | 59 | 951.9 |
| 20260503040312 | 65 | 81 | 3.5 | 5.2 | 0.00 | 0.00 | 0.00 | 59 | 951.9 |
| 20260503040212 | 65 | 40 | 2.6 | 5.2 | 0.00 | 0.00 | 0.00 | 59 | 951.9 |
| 20260503040109 | 65 | 60 | 2.6 | 5.2 | 0.00 | 0.00 | 0.00 | 59 | 951.9 |
| 20260503040011 | 65 | 64 | 2.6 | 4.3 | 0.00 | 0.00 | 0.00 | 59 | 951.9 |
| 20260503035913 | 65 | 27 | 2.6 | 3.5 | 0.00 | 0.00 | 0.00 | 59 | 951.9 |
| 20260503035811 | 65 | 56 | 2.6 | 3.5 | 0.00 | 0.00 | 0.00 | 59 | 951.9 |
| 20260503035710 | 65 | 41 | 2.6 | 3.5 | 0.00 | 0.00 | 0.00 | 59 | 951.9 |
| 20260503035611 | 65 | 54 | 2.6 | 3.5 | 0.00 | 0.00 | 0.00 | 59 | 951.9 |
| 20260503035511 | 65 | 33 | 2.6 | 3.5 | 0.00 | 0.00 | 0.00 | 59 | 951.9 |
| 20260503035411 | 65 | 68 | 2.6 | 3.5 | 0.00 | 0.00 | 0.00 | 59 | 951.8 |
| 20260503035310 | 65 | 38 | 2.6 | 3.5 | 0.00 | 0.00 | 0.00 | 59 | 951.9 |
| 20260503035211 | 65 | 65 | 1.7 | 3.5 | 0.00 | 0.00 | 0.00 | 59 | 951.8 |
| 20260503035111 | 65 | 78 | 1.7 | 3.5 | 0.00 | 0.00 | 0.00 | 59 | 951.8 |
| 20260503035011 | 65 | 32 | 1.7 | 3.5 | 0.00 | 0.00 | 0.00 | 59 | 951.8 |
| 20260503034911 | 65 | 57 | 1.7 | 3.5 | 0.00 | 0.00 | 0.00 | 59 | 951.8 |
| 20260503034811 | 65 | 69 | 1.7 | 3.5 | 0.00 | 0.00 | 0.00 | 59 | 951.8 |
| 20260503034710 | 65 | 27 | 1.7 | 3.5 | 0.00 | 0.00 | 0.00 | 60 | 951.8 |
| 20260503034611 | 65 | 57 | 1.7 | 3.5 | 0.00 | 0.00 | 0.00 | 60 | 951.8 |
| 20260503034512 | 65 | 17 | 1.7 | 3.5 | 0.00 | 0.00 | 0.00 | 59 | 951.8 |
| 20260503034411 | 65 | 17 | 1.7 | 3.5 | 0.00 | 0.00 | 0.00 | 59 | 951.8 |
| 20260503034311 | 65 | 79 | 1.7 | 3.5 | 0.00 | 0.00 | 0.00 | 59 | 951.7 |
| 20260503034212 | 65 | 27 | 1.7 | 3.5 | 0.00 | 0.00 | 0.00 | 59 | 951.7 |
| 20260503034111 | 65 | 18 | 1.7 | 3.5 | 0.00 | 0.00 | 0.00 | 59 | 951.7 |
| 20260503034011 | 66 | 61 | 1.7 | 3.5 | 0.00 | 0.00 | 0.00 | 59 | 951.7 |
| 20260503033911 | 66 | 67 | 1.7 | 3.5 | 0.00 | 0.00 | 0.00 | 59 | 951.7 |
| 20260503033812 | 66 | 87 | 1.7 | 3.5 | 0.00 | 0.00 | 0.00 | 59 | 951.7 |
| 20260503033711 | 66 | 45 | 1.7 | 3.5 | 0.00 | 0.00 | 0.00 | 59 | 951.7 |
| 20260503033611 | 66 | 53 | 1.7 | 3.5 | 0.00 | 0.00 | 0.00 | 59 | 951.7 |
| 20260503033511 | 66 | 58 | 1.7 | 3.5 | 0.00 | 0.00 | 0.00 | 59 | 951.7 |
| 20260503033411 | 66 | 62 | 1.7 | 3.5 | 0.00 | 0.00 | 0.00 | 59 | 951.7 |
| 20260503033311 | 66 | 117 | 1.7 | 3.5 | 0.00 | 0.00 | 0.00 | 59 | 951.7 |
| 20260503033211 | 66 | 56 | 1.7 | 3.5 | 0.00 | 0.00 | 0.00 | 60 | 951.7 |
| 20260503033112 | 66 | 57 | 1.7 | 3.5 | 0.00 | 0.00 | 0.00 | 59 | 951.7 |
| 20260503033011 | 66 | 43 | 1.7 | 3.5 | 0.00 | 0.00 | 0.00 | 60 | 951.7 |
| 20260503032911 | 66 | 71 | 1.7 | 3.5 | 0.00 | 0.00 | 0.00 | 59 | 951.7 |
| 20260503032811 | 66 | 74 | 1.7 | 3.5 | 0.00 | 0.00 | 0.00 | 59 | 951.7 |
| 20260503032711 | 66 | 68 | 1.7 | 3.5 | 0.00 | 0.00 | 0.00 | 59 | 951.7 |
| 20260503032612 | 66 | 353 | 1.7 | 3.5 | 0.00 | 0.00 | 0.00 | 59 | 951.7 |
| 20260503032512 | 66 | 18 | 1.7 | 3.5 | 0.00 | 0.00 | 0.00 | 59 | 951.7 |
| 20260503032412 | 66 | 54 | 1.7 | 3.5 | 0.00 | 0.00 | 0.00 | 59 | 951.7 |
| 20260503032311 | 66 | 38 | 1.7 | 3.5 | 0.00 | 0.00 | 0.00 | 59 | 951.7 |
| 20260503032158 | 66 | 44 | 1.7 | 3.5 | 0.00 | 0.00 | 0.00 | 59 | 951.8 |
| 20260503032058 | 66 | 351 | 1.7 | 3.5 | 0.00 | 0.00 | 0.00 | 59 | 951.8 |
| 20260503031959 | 66 | 46 | 1.7 | 3.5 | 0.00 | 0.00 | 0.00 | 59 | 951.8 |
| 20260503031859 | 66 | 82 | 1.7 | 3.5 | 0.00 | 0.00 | 0.00 | 59 | 951.8 |
| 20260503031758 | 66 | 50 | 1.7 | 3.5 | 0.00 | 0.00 | 0.00 | 59 | 951.7 |
| 20260503031658 | 66 | 73 | 1.7 | 3.5 | 0.00 | 0.00 | 0.00 | 58 | 951.7 |
| 20260503031557 | 66 | 47 | 1.7 | 3.5 | 0.00 | 0.00 | 0.00 | 58 | 951.7 |
| 20260503031458 | 66 | 52 | 1.7 | 3.5 | 0.00 | 0.00 | 0.00 | 58 | 951.7 |
| 20260503031358 | 66 | 65 | 1.7 | 3.5 | 0.00 | 0.00 | 0.00 | 58 | 951.7 |
| 20260503031259 | 66 | 55 | 1.7 | 3.5 | 0.00 | 0.00 | 0.00 | 58 | 951.6 |
| 20260503031159 | 66 | 53 | 1.7 | 3.5 | 0.00 | 0.00 | 0.00 | 58 | 951.6 |
| 20260503031058 | 66 | 53 | 1.7 | 3.5 | 0.00 | 0.00 | 0.00 | 58 | 951.6 |
| 20260503030958 | 66 | 93 | 1.7 | 3.5 | 0.00 | 0.00 | 0.00 | 58 | 951.6 |
| 20260503030858 | 66 | 53 | 1.7 | 3.5 | 0.00 | 0.00 | 0.00 | 58 | 951.5 |
| 20260503030758 | 66 | 55 | 1.7 | 3.5 | 0.00 | 0.00 | 0.00 | 58 | 951.6 |
| 20260503030658 | 66 | 65 | 1.7 | 3.5 | 0.00 | 0.00 | 0.00 | 57 | 951.5 |
| 20260503030559 | 67 | 354 | 1.7 | 4.3 | 0.00 | 0.00 | 0.00 | 57 | 951.5 |
| 20260503030458 | 67 | 54 | 1.7 | 4.3 | 0.00 | 0.00 | 0.00 | 57 | 951.5 |
| 20260503030358 | 67 | 63 | 2.6 | 4.3 | 0.00 | 0.00 | 0.00 | 57 | 951.5 |
| 20260503030258 | 67 | 50 | 2.6 | 4.3 | 0.00 | 0.00 | 0.00 | 57 | 951.5 |
| 20260503030159 | 67 | 70 | 2.6 | 4.3 | 0.00 | 0.00 | 0.00 | 57 | 951.5 |
| 20260503030058 | 67 | 69 | 2.6 | 4.3 | 0.00 | 0.00 | 0.00 | 57 | 951.5 |
| 20260503025958 | 67 | 35 | 2.6 | 5.2 | 0.00 | 0.00 | 0.00 | 57 | 951.5 |
| 20260503025858 | 67 | 38 | 2.6 | 5.2 | 0.00 | 0.00 | 0.00 | 56 | 951.4 |
| 20260503025759 | 67 | 69 | 2.6 | 5.2 | 0.00 | 0.00 | 0.00 | 56 | 951.4 |
| 20260503025658 | 67 | 12 | 2.6 | 5.2 | 0.00 | 0.00 | 0.00 | 56 | 951.4 |
| 20260503025559 | 67 | 54 | 2.6 | 5.2 | 0.00 | 0.00 | 0.00 | 56 | 951.4 |
| 20260503025450 | 67 | 59 | 2.6 | 5.2 | 0.00 | 0.00 | 0.00 | 56 | 951.4 |
| 20260503025349 | 67 | 47 | 2.6 | 5.2 | 0.00 | 0.00 | 0.00 | 56 | 951.4 |
| 20260503025250 | 67 | 42 | 2.6 | 5.2 | 0.00 | 0.00 | 0.00 | 56 | 951.3 |
| 20260503025149 | 67 | 59 | 2.6 | 5.2 | 0.00 | 0.00 | 0.00 | 56 | 951.3 |
| 20260503025050 | 67 | 42 | 2.6 | 5.2 | 0.00 | 0.00 | 0.00 | 55 | 951.3 |
| 20260503024950 | 67 | 69 | 2.6 | 5.2 | 0.00 | 0.00 | 0.00 | 55 | 951.2 |
| 20260503024850 | 67 | 39 | 2.6 | 5.2 | 0.00 | 0.00 | 0.00 | 55 | 951.2 |
| 20260503024750 | 67 | 70 | 2.6 | 5.2 | 0.00 | 0.00 | 0.00 | 55 | 951.2 |
| 20260503024644 | 67 | 40 | 2.6 | 6.1 | 0.00 | 0.00 | 0.00 | 55 | 951.2 |
| 20260503024543 | 67 | 48 | 2.6 | 7.0 | 0.00 | 0.00 | 0.00 | 55 | 951.2 |
| 20260503024443 | 67 | 56 | 2.6 | 7.0 | 0.00 | 0.00 | 0.00 | 55 | 951.1 |
| 20260503024332 | 67 | 20 | 3.5 | 7.0 | 0.00 | 0.00 | 0.00 | 55 | 951.1 |
| 20260503024232 | 67 | 56 | 3.5 | 7.0 | 0.00 | 0.00 | 0.00 | 54 | 951.1 |
| 20260503024132 | 67 | 82 | 3.5 | 7.0 | 0.00 | 0.00 | 0.00 | 54 | 951.1 |
| 20260503024031 | 67 | 37 | 3.5 | 7.0 | 0.00 | 0.00 | 0.00 | 54 | 951.0 |
| 20260503023926 | 67 | 39 | 3.5 | 7.0 | 0.00 | 0.00 | 0.00 | 54 | 951.0 |
| 20260503023820 | 67 | 78 | 3.5 | 7.0 | 0.00 | 0.00 | 0.00 | 54 | 951.1 |
| 20260503023720 | 67 | 81 | 3.5 | 7.0 | 0.00 | 0.00 | 0.00 | 54 | 951.0 |
| 20260503023620 | 67 | 74 | 3.5 | 7.0 | 0.00 | 0.00 | 0.00 | 54 | 951.0 |
| 20260503023519 | 67 | 54 | 3.5 | 5.2 | 0.00 | 0.00 | 0.00 | 54 | 951.0 |
| 20260503023420 | 67 | 69 | 3.5 | 5.2 | 0.00 | 0.00 | 0.00 | 54 | 951.0 |
| 20260503023320 | 67 | 49 | 2.6 | 5.2 | 0.00 | 0.00 | 0.00 | 54 | 951.1 |
| 20260503023220 | 67 | 43 | 2.6 | 5.2 | 0.00 | 0.00 | 0.00 | 54 | 951.1 |
| 20260503023112 | 67 | 70 | 2.6 | 4.3 | 0.00 | 0.00 | 0.00 | 54 | 951.0 |
| 20260503023013 | 67 | 61 | 2.6 | 5.2 | 0.00 | 0.00 | 0.00 | 55 | 951.0 |
| 20260503022913 | 67 | 58 | 2.6 | 5.2 | 0.00 | 0.00 | 0.00 | 55 | 951.0 |
| 20260503022813 | 67 | 242 | 2.6 | 5.2 | 0.00 | 0.00 | 0.00 | 55 | 951.0 |
| 20260503022713 | 67 | 98 | 2.6 | 5.2 | 0.00 | 0.00 | 0.00 | 55 | 951.0 |
| 20260503022611 | 68 | 9 | 2.6 | 5.2 | 0.00 | 0.00 | 0.00 | 55 | 951.0 |
| 20260503022511 | 68 | 88 | 2.6 | 5.2 | 0.00 | 0.00 | 0.00 | 55 | 951.0 |
| 20260503022411 | 68 | 157 | 2.6 | 5.2 | 0.00 | 0.00 | 0.00 | 55 | 951.0 |
| 20260503022311 | 68 | 90 | 2.6 | 5.2 | 0.00 | 0.00 | 0.00 | 54 | 951.0 |
| 20260503022211 | 68 | 72 | 2.6 | 5.2 | 0.00 | 0.00 | 0.00 | 54 | 951.0 |
| 20260503022111 | 68 | 87 | 2.6 | 5.2 | 0.00 | 0.00 | 0.00 | 54 | 951.0 |
| 20260503022011 | 68 | 83 | 2.6 | 5.2 | 0.00 | 0.00 | 0.00 | 54 | 951.0 |
| 20260503021911 | 68 | 63 | 2.6 | 5.2 | 0.00 | 0.00 | 0.00 | 53 | 951.0 |
| 20260503021812 | 68 | 84 | 2.6 | 5.2 | 0.00 | 0.00 | 0.00 | 53 | 951.0 |
| 20260503021711 | 68 | 53 | 2.6 | 5.2 | 0.00 | 0.00 | 0.00 | 53 | 951.0 |
| 20260503021611 | 68 | 69 | 2.6 | 5.2 | 0.00 | 0.00 | 0.00 | 53 | 950.9 |
| 20260503021511 | 68 | 51 | 2.6 | 5.2 | 0.00 | 0.00 | 0.00 | 53 | 950.9 |
| 20260503021412 | 68 | 39 | 3.5 | 5.2 | 0.00 | 0.00 | 0.00 | 53 | 950.9 |
| 20260503021311 | 68 | 64 | 3.5 | 5.2 | 0.00 | 0.00 | 0.00 | 53 | 950.9 |
| 20260503021212 | 68 | 44 | 3.5 | 7.0 | 0.00 | 0.00 | 0.00 | 53 | 950.9 |
| 20260503021111 | 68 | 44 | 3.5 | 7.0 | 0.00 | 0.00 | 0.00 | 53 | 950.9 |
| 20260503021011 | 68 | 83 | 3.5 | 7.0 | 0.00 | 0.00 | 0.00 | 53 | 950.9 |
| 20260503020911 | 68 | 7 | 3.5 | 7.0 | 0.00 | 0.00 | 0.00 | 53 | 950.9 |
| 20260503020811 | 68 | 36 | 3.5 | 7.0 | 0.00 | 0.00 | 0.00 | 53 | 950.9 |
| 20260503020712 | 68 | 24 | 3.5 | 7.0 | 0.00 | 0.00 | 0.00 | 53 | 950.8 |
| 20260503020611 | 68 | 41 | 3.5 | 7.0 | 0.00 | 0.00 | 0.00 | 53 | 950.8 |
| 20260503020511 | 68 | 53 | 3.5 | 7.0 | 0.00 | 0.00 | 0.00 | 53 | 950.8 |
| 20260503020412 | 68 | 60 | 3.5 | 7.0 | 0.00 | 0.00 | 0.00 | 53 | 950.8 |
| 20260503020311 | 68 | 61 | 3.5 | 7.8 | 0.00 | 0.00 | 0.00 | 53 | 950.8 |
| 20260503020212 | 68 | 52 | 3.5 | 7.8 | 0.00 | 0.00 | 0.00 | 53 | 950.8 |
| 20260503020112 | 68 | 45 | 3.5 | 7.8 | 0.00 | 0.00 | 0.00 | 53 | 950.8 |
| 20260503020007 | 68 | 54 | 2.6 | 7.8 | 0.00 | 0.00 | 0.00 | 53 | 950.7 |
| 20260503015907 | 68 | 79 | 3.5 | 7.8 | 0.00 | 0.00 | 0.00 | 53 | 950.7 |
| 20260503015806 | 68 | 37 | 3.5 | 7.8 | 0.00 | 0.00 | 0.00 | 53 | 950.7 |
| 20260503015706 | 68 | 40 | 3.5 | 7.8 | 0.00 | 0.00 | 0.00 | 53 | 950.8 |
| 20260503015605 | 68 | 87 | 3.5 | 7.8 | 0.00 | 0.00 | 0.00 | 53 | 950.8 |
| 20260503015501 | 68 | 37 | 3.5 | 7.8 | 0.00 | 0.00 | 0.00 | 53 | 950.8 |
| 20260503015402 | 68 | 63 | 3.5 | 7.8 | 0.00 | 0.00 | 0.00 | 53 | 950.7 |
| 20260503015300 | 68 | 61 | 3.5 | 7.0 | 0.00 | 0.00 | 0.00 | 53 | 950.8 |
| 20260503015200 | 68 | 42 | 3.5 | 7.0 | 0.00 | 0.00 | 0.00 | 53 | 950.8 |
| 20260503015055 | 68 | 5 | 3.5 | 7.0 | 0.00 | 0.00 | 0.00 | 53 | 950.8 |
| 20260503014956 | 68 | 135 | 3.5 | 7.0 | 0.00 | 0.00 | 0.00 | 53 | 950.8 |
| 20260503014855 | 68 | 62 | 3.5 | 7.0 | 0.00 | 0.00 | 0.00 | 53 | 950.7 |
| 20260503014755 | 68 | 62 | 3.5 | 6.1 | 0.00 | 0.00 | 0.00 | 53 | 950.7 |
| 20260503014655 | 68 | 83 | 3.5 | 6.1 | 0.00 | 0.00 | 0.00 | 53 | 950.7 |
| 20260503014556 | 68 | 75 | 3.5 | 6.1 | 0.00 | 0.00 | 0.00 | 53 | 950.7 |
| 20260503014455 | 68 | 45 | 3.5 | 6.1 | 0.00 | 0.00 | 0.00 | 53 | 950.7 |
| 20260503014354 | 68 | 64 | 3.5 | 6.1 | 0.00 | 0.00 | 0.00 | 53 | 950.7 |
| 20260503014254 | 68 | 69 | 2.6 | 6.1 | 0.00 | 0.00 | 0.00 | 53 | 950.7 |
| 20260503014155 | 68 | 33 | 3.5 | 6.1 | 0.00 | 0.00 | 0.00 | 53 | 950.7 |
| 20260503014054 | 68 | 78 | 3.5 | 6.1 | 0.00 | 0.00 | 0.00 | 53 | 950.8 |
| 20260503013955 | 68 | 30 | 2.6 | 6.1 | 0.00 | 0.00 | 0.00 | 53 | 950.8 |
| 20260503013854 | 69 | 71 | 3.5 | 6.1 | 0.00 | 0.00 | 0.00 | 53 | 950.8 |
| 20260503013754 | 69 | 60 | 3.5 | 6.1 | 0.00 | 0.00 | 0.00 | 53 | 950.8 |
| 20260503013654 | 69 | 65 | 3.5 | 6.1 | 0.00 | 0.00 | 0.00 | 53 | 950.8 |
| 20260503013554 | 69 | 81 | 3.5 | 7.0 | 0.00 | 0.00 | 0.00 | 53 | 950.8 |
| 20260503013454 | 69 | 63 | 3.5 | 7.0 | 0.00 | 0.00 | 0.00 | 53 | 950.8 |
| 20260503013350 | 69 | 50 | 3.5 | 7.0 | 0.00 | 0.00 | 0.00 | 52 | 950.8 |
| 20260503013250 | 69 | 3 | 3.5 | 7.0 | 0.00 | 0.00 | 0.00 | 52 | 950.8 |
| 20260503013150 | 69 | 60 | 3.5 | 7.0 | 0.00 | 0.00 | 0.00 | 53 | 950.8 |
| 20260503013050 | 69 | 65 | 3.5 | 7.0 | 0.00 | 0.00 | 0.00 | 52 | 950.8 |
| 20260503012950 | 69 | 38 | 3.5 | 7.0 | 0.00 | 0.00 | 0.00 | 52 | 950.7 |
| 20260503012850 | 69 | 65 | 3.5 | 7.0 | 0.00 | 0.00 | 0.00 | 52 | 950.8 |
| 20260503012750 | 69 | 73 | 3.5 | 7.0 | 0.00 | 0.00 | 0.00 | 52 | 950.8 |
| 20260503012650 | 69 | 59 | 3.5 | 7.0 | 0.00 | 0.00 | 0.00 | 52 | 950.8 |
| 20260503012550 | 69 | 62 | 3.5 | 7.0 | 0.00 | 0.00 | 0.00 | 53 | 950.8 |
| 20260503012450 | 69 | 53 | 2.6 | 7.0 | 0.00 | 0.00 | 0.00 | 53 | 950.8 |
| 20260503012350 | 69 | 71 | 2.6 | 6.1 | 0.00 | 0.00 | 0.00 | 53 | 950.8 |
| 20260503012250 | 69 | 81 | 2.6 | 6.1 | 0.00 | 0.00 | 0.00 | 53 | 950.8 |
| 20260503012150 | 69 | 69 | 2.6 | 6.1 | 0.00 | 0.00 | 0.00 | 53 | 950.8 |
| 20260503012050 | 69 | 66 | 2.6 | 5.2 | 0.00 | 0.00 | 0.00 | 53 | 950.7 |
| 20260503011950 | 69 | 38 | 2.6 | 5.2 | 0.00 | 0.00 | 0.00 | 53 | 950.7 |
| 20260503011851 | 69 | 59 | 2.6 | 6.1 | 0.00 | 0.00 | 0.00 | 53 | 950.7 |
| 20260503011750 | 69 | 51 | 3.5 | 7.0 | 0.00 | 0.00 | 0.00 | 53 | 950.7 |
| 20260503011650 | 69 | 31 | 3.5 | 7.0 | 0.00 | 0.00 | 0.00 | 53 | 950.6 |
| 20260503011550 | 69 | 55 | 3.5 | 7.0 | 0.00 | 0.00 | 0.00 | 53 | 950.6 |
| 20260503011451 | 69 | 83 | 3.5 | 7.0 | 0.00 | 0.00 | 0.00 | 53 | 950.6 |
| 20260503011350 | 69 | 30 | 3.5 | 7.0 | 0.00 | 0.00 | 0.00 | 53 | 950.6 |
| 20260503011250 | 69 | 54 | 3.5 | 7.0 | 0.00 | 0.00 | 0.00 | 53 | 950.5 |
| 20260503011150 | 69 | 43 | 3.5 | 7.0 | 0.00 | 0.00 | 0.00 | 52 | 950.5 |
| 20260503011051 | 69 | 49 | 3.5 | 7.8 | 0.00 | 0.00 | 0.00 | 53 | 950.5 |
| 20260503010950 | 69 | 34 | 3.5 | 7.8 | 0.00 | 0.00 | 0.00 | 53 | 950.5 |
| 20260503010851 | 69 | 49 | 3.5 | 7.8 | 0.00 | 0.00 | 0.00 | 53 | 950.5 |
| 20260503010750 | 69 | 33 | 3.5 | 7.8 | 0.00 | 0.00 | 0.00 | 53 | 950.5 |
| 20260503010650 | 69 | 45 | 4.3 | 7.8 | 0.00 | 0.00 | 0.00 | 53 | 950.5 |
| 20260503010548 | 69 | 41 | 4.3 | 7.8 | 0.00 | 0.00 | 0.00 | 53 | 950.4 |
| 20260503010449 | 69 | 44 | 3.5 | 7.8 | 0.00 | 0.00 | 0.00 | 53 | 950.4 |
| 20260503010348 | 69 | 50 | 4.3 | 7.8 | 0.00 | 0.00 | 0.00 | 53 | 950.4 |
| 20260503010249 | 69 | 71 | 4.3 | 7.8 | 0.00 | 0.00 | 0.00 | 53 | 950.4 |
| 20260503010148 | 69 | 53 | 4.3 | 7.8 | 0.00 | 0.00 | 0.00 | 53 | 950.3 |
| 20260503010049 | 69 | 62 | 4.3 | 7.8 | 0.00 | 0.00 | 0.00 | 53 | 950.4 |
| 20260503005948 | 69 | 80 | 4.3 | 7.8 | 0.00 | 0.00 | 0.00 | 52 | 950.4 |
| 20260503005844 | 69 | 71 | 4.3 | 7.8 | 0.00 | 0.00 | 0.00 | 52 | 950.3 |
| 20260503005743 | 69 | 47 | 4.3 | 7.8 | 0.00 | 0.00 | 0.00 | 53 | 950.3 |
| 20260503005643 | 69 | 23 | 4.3 | 7.8 | 0.00 | 0.00 | 0.00 | 53 | 950.3 |
| 20260503005539 | 69 | 90 | 4.3 | 7.8 | 0.00 | 0.00 | 0.00 | 53 | 950.3 |
| 20260503005438 | 69 | 78 | 4.3 | 7.8 | 0.00 | 0.00 | 0.00 | 53 | 950.3 |
| 20260503005339 | 69 | 70 | 4.3 | 7.8 | 0.00 | 0.00 | 0.00 | 53 | 950.3 |
| 20260503005238 | 69 | 63 | 4.3 | 7.8 | 0.00 | 0.00 | 0.00 | 52 | 950.3 |
| 20260503005139 | 69 | 59 | 4.3 | 7.8 | 0.00 | 0.00 | 0.00 | 52 | 950.3 |
| 20260503005038 | 69 | 59 | 4.3 | 7.8 | 0.00 | 0.00 | 0.00 | 52 | 950.3 |
| 20260503004939 | 69 | 45 | 4.3 | 7.8 | 0.00 | 0.00 | 0.00 | 52 | 950.3 |
| 20260503004839 | 69 | 47 | 4.3 | 7.8 | 0.00 | 0.00 | 0.00 | 53 | 950.3 |
| 20260503004739 | 69 | 62 | 4.3 | 7.8 | 0.00 | 0.00 | 0.00 | 52 | 950.3 |
| 20260503004638 | 69 | 22 | 4.3 | 7.8 | 0.00 | 0.00 | 0.00 | 53 | 950.3 |
| 20260503004539 | 69 | 55 | 4.3 | 7.8 | 0.00 | 0.00 | 0.00 | 52 | 950.3 |
| 20260503004439 | 69 | 61 | 4.3 | 7.8 | 0.00 | 0.00 | 0.00 | 52 | 950.2 |
| 20260503004338 | 69 | 56 | 4.3 | 7.8 | 0.00 | 0.00 | 0.00 | 53 | 950.2 |
| 20260503004238 | 69 | 37 | 5.2 | 7.8 | 0.00 | 0.00 | 0.00 | 53 | 950.2 |
| 20260503004139 | 69 | 58 | 5.2 | 7.8 | 0.00 | 0.00 | 0.00 | 53 | 950.2 |
| 20260503004039 | 69 | 63 | 4.3 | 7.8 | 0.00 | 0.00 | 0.00 | 53 | 950.2 |
| 20260503003938 | 69 | 36 | 4.3 | 7.8 | 0.00 | 0.00 | 0.00 | 53 | 950.2 |
| 20260503003839 | 69 | 41 | 4.3 | 7.8 | 0.00 | 0.00 | 0.00 | 52 | 950.1 |
| 20260503003739 | 70 | 77 | 4.3 | 7.8 | 0.00 | 0.00 | 0.00 | 53 | 950.1 |